Wetterdaten: Montag, 13.04.2020
Datum Zeit Temp. Aussen Temp. o. S. Temp +5cm Feuchte Auss Luftdruck Regen Sonnenschein Regendauer Solar Windben Empfang
13.04.2020 00:00 13,7 C 11,1 C 10,0 C 72 % 1013,3 hPa 0,0 l/m 0 min 0 min 0 W/m 0,0 km/h (0 Bft) 100,00 %
13.04.2020 00:02 13,6 C 11,1 C 10,0 C 72 % 1013,3 hPa 0,0 l/m 0 min 0 min 0 W/m 0,0 km/h (0 Bft) 100,00 %
13.04.2020 00:04 13,6 C 10,6 C 10,0 C 72 % 1013,3 hPa 0,0 l/m 0 min 0 min 0 W/m 0,0 km/h (0 Bft) 100,00 %
13.04.2020 00:08 13,4 C 10,6 C 10,0 C 72 % 1013,2 hPa 0,0 l/m 0 min 0 min 0 W/m 0,0 km/h (0 Bft) 100,00 %
13.04.2020 00:10 13,3 C 10,6 C 10,0 C 72 % 1013,3 hPa 0,0 l/m 0 min 0 min 0 W/m 0,0 km/h (0 Bft) 100,00 %
13.04.2020 00:12 13,3 C 10,6 C 10,0 C 73 % 1013,3 hPa 0,0 l/m 0 min 0 min 0 W/m 0,0 km/h (0 Bft) 100,00 %
13.04.2020 00:14 13,2 C 10,6 C 10,0 C 73 % 1013,3 hPa 0,0 l/m 0 min 0 min 0 W/m 0,0 km/h (0 Bft) 100,00 %
13.04.2020 00:16 13,2 C 11,1 C 9,4 C 73 % 1013,3 hPa 0,0 l/m 0 min 0 min 0 W/m 0,0 km/h (0 Bft) 100,00 %
13.04.2020 00:18 13,1 C 11,1 C 9,4 C 73 % 1013,3 hPa 0,0 l/m 0 min 0 min 0 W/m 0,0 km/h (0 Bft) 100,00 %
13.04.2020 00:20 13,1 C 11,1 C 9,4 C 73 % 1013,3 hPa 0,0 l/m 0 min 0 min 0 W/m 0,0 km/h (0 Bft) 100,00 %
13.04.2020 00:22 13,0 C 11,1 C 10,0 C 74 % 1013,3 hPa 0,0 l/m 0 min 0 min 0 W/m 0,0 km/h (0 Bft) 100,00 %
13.04.2020 00:24 12,9 C 11,1 C 10,0 C 74 % 1013,3 hPa 0,0 l/m 0 min 0 min 0 W/m 0,0 km/h (0 Bft) 100,00 %
13.04.2020 00:26 12,9 C 10,6 C 10,0 C 74 % 1013,3 hPa 0,0 l/m 0 min 0 min 0 W/m 0,0 km/h (0 Bft) 100,00 %
13.04.2020 00:28 12,8 C 10,6 C 10,0 C 74 % 1013,3 hPa 0,0 l/m 0 min 0 min 0 W/m 0,0 km/h (0 Bft) 100,00 %
13.04.2020 00:30 12,8 C 10,6 C 10,0 C 74 % 1013,3 hPa 0,0 l/m 0 min 0 min 0 W/m 0,0 km/h (0 Bft) 97,87 %
13.04.2020 00:32 12,7 C 10,6 C 10,0 C 75 % 1013,4 hPa 0,0 l/m 0 min 0 min 0 W/m 0,0 km/h (0 Bft) 97,87 %
13.04.2020 00:34 12,7 C 10,6 C 9,4 C 75 % 1013,4 hPa 0,0 l/m 0 min 0 min 0 W/m 0,0 km/h (0 Bft) 100,00 %
13.04.2020 00:36 12,7 C 10,6 C 9,4 C 74 % 1013,3 hPa 0,0 l/m 0 min 0 min 0 W/m 0,0 km/h (0 Bft) 100,00 %
13.04.2020 00:38 12,6 C 10,6 C 9,4 C 75 % 1013,4 hPa 0,0 l/m 0 min 0 min 0 W/m 0,0 km/h (0 Bft) 95,74 %
13.04.2020 00:40 12,6 C 10,6 C 9,4 C 75 % 1013,4 hPa 0,0 l/m 0 min 0 min 0 W/m 0,0 km/h (0 Bft) 97,87 %
13.04.2020 00:42 12,6 C 10,6 C 9,4 C 75 % 1013,4 hPa 0,0 l/m 0 min 0 min 0 W/m 0,0 km/h (0 Bft) 97,87 %
13.04.2020 00:44 12,5 C 10,6 C 9,4 C 75 % 1013,4 hPa 0,0 l/m 0 min 0 min 0 W/m 0,0 km/h (0 Bft) 97,87 %
13.04.2020 00:46 12,4 C 10,6 C 9,4 C 75 % 1013,4 hPa 0,0 l/m 0 min 0 min 0 W/m 0,0 km/h (0 Bft) 97,83 %
13.04.2020 00:48 12,4 C 10,6 C 9,4 C 75 % 1013,4 hPa 0,0 l/m 0 min 0 min 0 W/m 0,0 km/h (0 Bft) 95,74 %
13.04.2020 00:50 12,4 C 10,6 C 9,4 C 76 % 1013,3 hPa 0,0 l/m 0 min 0 min 0 W/m 0,0 km/h (0 Bft) 95,74 %
13.04.2020 00:52 12,4 C 10,6 C 9,4 C 76 % 1013,3 hPa 0,0 l/m 0 min 0 min 0 W/m 0,0 km/h (0 Bft) 97,87 %
13.04.2020 00:54 12,3 C 10,6 C 9,4 C 76 % 1013,3 hPa 0,0 l/m 0 min 0 min 0 W/m 0,0 km/h (0 Bft) 97,87 %
13.04.2020 00:56 12,3 C 10,6 C 9,4 C 75 % 1013,3 hPa 0,0 l/m 0 min 0 min 0 W/m 0,0 km/h (0 Bft) 95,74 %
13.04.2020 00:58 12,3 C 10,6 C 9,4 C 76 % 1013,3 hPa 0,0 l/m 0 min 0 min 0 W/m 0,0 km/h (0 Bft) 93,48 %
13.04.2020 01:00 12,2 C 10,6 C 9,4 C 76 % 1013,3 hPa 0,0 l/m 0 min 0 min 0 W/m 0,0 km/h (0 Bft) 95,74 %
13.04.2020 01:02 12,2 C 10,6 C 9,4 C 76 % 1013,3 hPa 0,0 l/m 0 min 0 min 0 W/m 0,0 km/h (0 Bft) 95,74 %
13.04.2020 01:04 12,2 C 11,1 C 9,4 C 77 % 1013,3 hPa 0,0 l/m 0 min 0 min 0 W/m 0,0 km/h (0 Bft) 91,49 %
13.04.2020 01:06 12,1 C 10,6 C 9,4 C 77 % 1013,3 hPa 0,0 l/m 0 min 0 min 0 W/m 0,0 km/h (0 Bft) 93,62 %
13.04.2020 01:08 12,1 C 11,1 C 9,4 C 77 % 1013,4 hPa 0,0 l/m 0 min 0 min 0 W/m 0,0 km/h (0 Bft) 93,62 %
13.04.2020 01:10 12,1 C 11,1 C 9,4 C 78 % 1013,4 hPa 0,0 l/m 0 min 0 min 0 W/m 0,0 km/h (0 Bft) 95,65 %
13.04.2020 01:12 12,1 C 10,6 C 9,4 C 78 % 1013,4 hPa 0,0 l/m 0 min 0 min 0 W/m 0,0 km/h (0 Bft) 97,87 %
13.04.2020 01:14 12,0 C 10,6 C 9,4 C 78 % 1013,4 hPa 0,0 l/m 0 min 0 min 0 W/m 0,0 km/h (0 Bft) 97,87 %
13.04.2020 01:16 12,0 C 10,6 C 9,4 C 78 % 1013,4 hPa 0,0 l/m 0 min 0 min 0 W/m 0,0 km/h (0 Bft) 97,87 %
13.04.2020 01:18 12,0 C 10,6 C 9,4 C 78 % 1013,4 hPa 0,0 l/m 0 min 0 min 0 W/m 0,0 km/h (0 Bft) 97,87 %
13.04.2020 01:20 11,9 C 10,6 C 9,4 C 78 % 1013,4 hPa 0,0 l/m 0 min 0 min 0 W/m 0,0 km/h (0 Bft) 97,87 %
13.04.2020 01:22 11,9 C 10,6 C 9,4 C 78 % 1013,4 hPa 0,0 l/m 0 min 0 min 0 W/m 0,0 km/h (0 Bft) 97,83 %
13.04.2020 01:24 11,9 C 10,6 C 9,4 C 79 % 1013,5 hPa 0,0 l/m 0 min 0 min 0 W/m 0,0 km/h (0 Bft) 97,87 %
13.04.2020 01:26 11,9 C 10,6 C 8,9 C 79 % 1013,5 hPa 0,0 l/m 0 min 0 min 0 W/m 0,0 km/h (0 Bft) 97,87 %
13.04.2020 01:28 11,8 C 10,6 C 8,9 C 78 % 1013,4 hPa 0,0 l/m 0 min 0 min 0 W/m 0,0 km/h (0 Bft) 95,74 %
13.04.2020 01:30 11,8 C 10,0 C 8,9 C 78 % 1013,4 hPa 0,0 l/m 0 min 0 min 0 W/m 0,0 km/h (0 Bft) 95,74 %
13.04.2020 01:32 11,8 C 10,6 C 8,9 C 78 % 1013,4 hPa 0,0 l/m 0 min 0 min 0 W/m 0,0 km/h (0 Bft) 97,83 %
13.04.2020 01:34 11,8 C 10,6 C 8,9 C 79 % 1013,4 hPa 0,0 l/m 0 min 0 min 0 W/m 0,0 km/h (0 Bft) 97,87 %
13.04.2020 01:36 11,7 C 10,0 C 8,9 C 78 % 1013,4 hPa 0,0 l/m 0 min 0 min 0 W/m 0,0 km/h (0 Bft) 97,87 %
13.04.2020 01:38 11,7 C 10,0 C 8,9 C 78 % 1013,4 hPa 0,0 l/m 0 min 0 min 0 W/m 0,0 km/h (0 Bft) 97,87 %
13.04.2020 01:40 11,7 C 10,0 C 8,9 C 78 % 1013,5 hPa 0,0 l/m 0 min 0 min 0 W/m 0,0 km/h (0 Bft) 97,87 %
13.04.2020 01:42 11,7 C 10,0 C 8,9 C 78 % 1013,4 hPa 0,0 l/m 0 min 0 min 0 W/m 0,0 km/h (0 Bft) 100,00 %
13.04.2020 01:44 11,6 C 9,4 C 8,9 C 78 % 1013,4 hPa 0,0 l/m 0 min 0 min 0 W/m 0,0 km/h (0 Bft) 100,00 %
13.04.2020 01:46 11,6 C 9,4 C 8,9 C 78 % 1013,5 hPa 0,0 l/m 0 min 0 min 0 W/m 0,0 km/h (0 Bft) 95,74 %
13.04.2020 01:48 11,6 C 9,4 C 8,9 C 78 % 1013,4 hPa 0,0 l/m 0 min 0 min 0 W/m 0,0 km/h (0 Bft) 95,74 %
13.04.2020 01:50 11,6 C 9,4 C 8,3 C 78 % 1013,4 hPa 0,0 l/m 0 min 0 min 0 W/m 0,0 km/h (0 Bft) 95,74 %
13.04.2020 01:52 11,5 C 9,4 C 8,3 C 78 % 1013,4 hPa 0,0 l/m 0 min 0 min 0 W/m 0,0 km/h (0 Bft) 93,62 %
13.04.2020 01:54 11,5 C 9,4 C 8,3 C 78 % 1013,4 hPa 0,0 l/m 0 min 0 min 0 W/m 0,0 km/h (0 Bft) 97,87 %
13.04.2020 01:56 11,4 C 9,4 C 8,3 C 78 % 1013,4 hPa 0,0 l/m 0 min 0 min 0 W/m 0,0 km/h (0 Bft) 93,48 %
13.04.2020 01:58 11,4 C 9,4 C 8,3 C 78 % 1013,4 hPa 0,0 l/m 0 min 0 min 0 W/m 0,0 km/h (0 Bft) 91,49 %
13.04.2020 02:00 11,4 C 9,4 C 8,3 C 78 % 1013,4 hPa 0,0 l/m 0 min 0 min 0 W/m 0,0 km/h (0 Bft) 93,62 %
13.04.2020 02:02 11,3 C 9,4 C 8,3 C 78 % 1013,4 hPa 0,0 l/m 0 min 0 min 0 W/m 3,2 km/h (1 Bft) 95,74 %
13.04.2020 02:04 11,3 C 9,4 C 8,3 C 78 % 1013,4 hPa 0,0 l/m 0 min 0 min 0 W/m 0,0 km/h (0 Bft) 95,74 %
13.04.2020 02:06 11,3 C 9,4 C 8,3 C 78 % 1013,4 hPa 0,0 l/m 0 min 0 min 0 W/m 0,0 km/h (0 Bft) 93,62 %
13.04.2020 02:08 11,2 C 9,4 C 8,3 C 78 % 1013,4 hPa 0,0 l/m 0 min 0 min 0 W/m 0,0 km/h (0 Bft) 93,48 %
13.04.2020 02:10 11,2 C 9,4 C 8,3 C 78 % 1013,4 hPa 0,0 l/m 0 min 0 min 0 W/m 0,0 km/h (0 Bft) 95,74 %
13.04.2020 02:12 11,2 C 8,9 C 8,3 C 78 % 1013,4 hPa 0,0 l/m 0 min 0 min 0 W/m 0,0 km/h (0 Bft) 95,74 %
13.04.2020 02:14 11,1 C 8,9 C 7,8 C 78 % 1013,4 hPa 0,0 l/m 0 min 0 min 0 W/m 0,0 km/h (0 Bft) 97,87 %
13.04.2020 02:16 11,1 C 8,9 C 7,8 C 78 % 1013,5 hPa 0,0 l/m 0 min 0 min 0 W/m 0,0 km/h (0 Bft) 95,74 %
13.04.2020 02:18 11,1 C 8,3 C 7,8 C 79 % 1013,4 hPa 0,0 l/m 0 min 0 min 0 W/m 0,0 km/h (0 Bft) 93,48 %
13.04.2020 02:20 11,0 C 8,3 C 7,8 C 79 % 1013,6 hPa 0,0 l/m 0 min 0 min 0 W/m 0,0 km/h (0 Bft) 97,87 %
13.04.2020 02:22 10,9 C 8,3 C 7,8 C 79 % 1013,7 hPa 0,0 l/m 0 min 0 min 0 W/m 3,2 km/h (1 Bft) 95,74 %
13.04.2020 02:24 10,9 C 8,9 C 8,3 C 80 % 1013,7 hPa 0,0 l/m 0 min 0 min 0 W/m 9,7 km/h (2 Bft) 95,74 %
13.04.2020 02:26 10,8 C 8,9 C 8,3 C 81 % 1013,7 hPa 0,0 l/m 0 min 0 min 0 W/m 6,4 km/h (2 Bft) 97,87 %
13.04.2020 02:28 10,8 C 9,4 C 8,9 C 81 % 1013,9 hPa 0,0 l/m 0 min 0 min 0 W/m 9,7 km/h (2 Bft) 93,62 %
13.04.2020 02:30 10,7 C 9,4 C 8,9 C 82 % 1013,9 hPa 0,0 l/m 0 min 0 min 0 W/m 9,7 km/h (2 Bft) 95,65 %
13.04.2020 02:32 10,7 C 9,4 C 8,9 C 82 % 1013,9 hPa 0,0 l/m 0 min 0 min 0 W/m 9,7 km/h (2 Bft) 97,87 %
13.04.2020 02:34 10,7 C 9,4 C 9,4 C 82 % 1014,0 hPa 0,0 l/m 0 min 0 min 0 W/m 12,9 km/h (3 Bft) 95,74 %
13.04.2020 02:37 10,6 C 9,4 C 9,4 C 82 % 1014,0 hPa 0,0 l/m 0 min 0 min 0 W/m 9,7 km/h (2 Bft) 92,86 %
13.04.2020 02:38 10,6 C 9,4 C 9,4 C 82 % 1014,1 hPa 0,0 l/m 0 min 0 min 0 W/m 3,2 km/h (1 Bft) 100,00 %
13.04.2020 02:40 10,6 C 9,4 C 9,4 C 82 % 1014,1 hPa 0,0 l/m 0 min 0 min 0 W/m 6,4 km/h (2 Bft) 99,12 %
13.04.2020 02:42 10,6 C 10,0 C 9,4 C 83 % 1013,9 hPa 0,0 l/m 0 min 0 min 0 W/m 3,2 km/h (1 Bft) 100,00 %
13.04.2020 02:44 10,6 C 9,4 C 9,4 C 83 % 1014,0 hPa 0,0 l/m 0 min 0 min 0 W/m 6,4 km/h (2 Bft) 100,00 %
13.04.2020 02:46 10,6 C 10,0 C 9,4 C 83 % 1014,0 hPa 0,0 l/m 0 min 0 min 0 W/m 6,4 km/h (2 Bft) 97,87 %
13.04.2020 02:48 10,6 C 10,0 C 9,4 C 83 % 1014,0 hPa 0,0 l/m 0 min 0 min 0 W/m 0,0 km/h (0 Bft) 96,43 %
13.04.2020 02:50 10,6 C 10,0 C 9,4 C 83 % 1014,0 hPa 0,0 l/m 0 min 0 min 0 W/m 3,2 km/h (1 Bft) 93,62 %
13.04.2020 02:52 10,6 C 9,4 C 9,4 C 83 % 1014,0 hPa 0,0 l/m 0 min 0 min 0 W/m 9,7 km/h (2 Bft) 97,83 %
13.04.2020 02:54 10,6 C 10,0 C 9,4 C 83 % 1014,1 hPa 0,0 l/m 0 min 0 min 0 W/m 3,2 km/h (1 Bft) 97,87 %
13.04.2020 02:56 10,6 C 10,0 C 9,4 C 83 % 1014,0 hPa 0,0 l/m 0 min 0 min 0 W/m 3,2 km/h (1 Bft) 97,87 %
13.04.2020 03:01 10,6 C 9,4 C 9,4 C 83 % 1013,9 hPa 0,0 l/m 0 min 0 min 0 W/m 6,4 km/h (2 Bft) 95,65 %
13.04.2020 03:02 10,6 C 9,4 C 9,4 C 83 % 1013,9 hPa 0,0 l/m 0 min 0 min 0 W/m 0,0 km/h (0 Bft) 100,00 %
13.04.2020 03:04 10,6 C 9,4 C 9,4 C 83 % 1013,9 hPa 0,0 l/m 0 min 0 min 0 W/m 3,2 km/h (1 Bft) 97,83 %
13.04.2020 03:06 10,6 C 9,4 C 9,4 C 83 % 1013,9 hPa 0,0 l/m 0 min 0 min 0 W/m 3,2 km/h (1 Bft) 100,00 %
13.04.2020 03:08 10,6 C 9,4 C 9,4 C 83 % 1013,9 hPa 0,0 l/m 0 min 0 min 0 W/m 0,0 km/h (0 Bft) 100,00 %
13.04.2020 03:10 10,6 C 9,4 C 8,9 C 83 % 1013,9 hPa 0,0 l/m 0 min 0 min 0 W/m 3,2 km/h (1 Bft) 100,00 %
13.04.2020 03:12 10,6 C 9,4 C 8,9 C 83 % 1013,9 hPa 0,0 l/m 0 min 0 min 0 W/m 3,2 km/h (1 Bft) 97,87 %
13.04.2020 03:14 10,6 C 9,4 C 8,9 C 83 % 1013,8 hPa 0,0 l/m 0 min 0 min 0 W/m 0,0 km/h (0 Bft) 100,00 %
13.04.2020 03:16 10,6 C 9,4 C 8,9 C 83 % 1013,8 hPa 0,0 l/m 0 min 0 min 0 W/m 3,2 km/h (1 Bft) 100,00 %
13.04.2020 03:18 10,6 C 9,4 C 8,9 C 83 % 1013,9 hPa 0,0 l/m 0 min 0 min 0 W/m 0,0 km/h (0 Bft) 100,00 %
13.04.2020 03:20 10,6 C 8,9 C 8,3 C 83 % 1013,9 hPa 0,0 l/m 0 min 0 min 0 W/m 0,0 km/h (0 Bft) 100,00 %
13.04.2020 03:22 10,6 C 8,9 C 8,3 C 83 % 1013,9 hPa 0,0 l/m 0 min 0 min 0 W/m 0,0 km/h (0 Bft) 100,00 %
13.04.2020 03:24 10,5 C 8,9 C 8,3 C 83 % 1013,9 hPa 0,0 l/m 0 min 0 min 0 W/m 0,0 km/h (0 Bft) 100,00 %
13.04.2020 03:26 10,5 C 8,9 C 8,3 C 83 % 1013,9 hPa 0,0 l/m 0 min 0 min 0 W/m 0,0 km/h (0 Bft) 100,00 %
13.04.2020 03:28 10,5 C 8,9 C 8,3 C 83 % 1013,9 hPa 0,0 l/m 0 min 0 min 0 W/m 0,0 km/h (0 Bft) 100,00 %
13.04.2020 03:30 10,5 C 9,4 C 8,3 C 83 % 1013,9 hPa 0,0 l/m 0 min 0 min 0 W/m 0,0 km/h (0 Bft) 100,00 %
13.04.2020 03:32 10,4 C 9,4 C 8,3 C 83 % 1014,0 hPa 0,0 l/m 0 min 0 min 0 W/m 0,0 km/h (0 Bft) 100,00 %
13.04.2020 03:34 10,4 C 9,4 C 8,3 C 83 % 1013,9 hPa 0,0 l/m 0 min 0 min 0 W/m 3,2 km/h (1 Bft) 100,00 %
13.04.2020 03:36 10,4 C 9,4 C 8,3 C 83 % 1014,0 hPa 0,0 l/m 0 min 0 min 0 W/m 0,0 km/h (0 Bft) 100,00 %
13.04.2020 03:38 10,4 C 9,4 C 8,3 C 83 % 1013,9 hPa 0,0 l/m 0 min 0 min 0 W/m 0,0 km/h (0 Bft) 100,00 %
13.04.2020 03:40 10,4 C 9,4 C 8,3 C 83 % 1014,0 hPa 0,0 l/m 0 min 0 min 0 W/m 0,0 km/h (0 Bft) 100,00 %
13.04.2020 03:42 10,4 C 9,4 C 8,3 C 83 % 1014,0 hPa 0,0 l/m 0 min 0 min 0 W/m 0,0 km/h (0 Bft) 100,00 %
13.04.2020 03:44 10,4 C 9,4 C 8,9 C 84 % 1014,0 hPa 0,0 l/m 0 min 0 min 0 W/m 3,2 km/h (1 Bft) 100,00 %
13.04.2020 03:46 10,4 C 9,4 C 8,9 C 84 % 1014,1 hPa 0,0 l/m 0 min 0 min 0 W/m 9,7 km/h (2 Bft) 100,00 %
13.04.2020 03:48 10,4 C 9,4 C 8,9 C 84 % 1014,2 hPa 0,0 l/m 0 min 0 min 0 W/m 3,2 km/h (1 Bft) 100,00 %
13.04.2020 03:50 10,4 C 9,4 C 8,9 C 84 % 1014,2 hPa 0,0 l/m 0 min 0 min 0 W/m 9,7 km/h (2 Bft) 97,83 %
13.04.2020 03:52 10,4 C 9,4 C 8,9 C 85 % 1014,3 hPa 0,0 l/m 0 min 0 min 0 W/m 6,4 km/h (2 Bft) 100,00 %
13.04.2020 03:54 10,4 C 9,4 C 8,9 C 85 % 1014,2 hPa 0,0 l/m 0 min 0 min 0 W/m 16,1 km/h (3 Bft) 100,00 %
13.04.2020 03:56 10,4 C 10,0 C 9,4 C 85 % 1014,2 hPa 0,0 l/m 0 min 0 min 0 W/m 9,7 km/h (2 Bft) 100,00 %
13.04.2020 03:58 10,4 C 10,0 C 9,4 C 85 % 1014,3 hPa 0,0 l/m 0 min 0 min 0 W/m 6,4 km/h (2 Bft) 100,00 %
13.04.2020 04:00 10,4 C 10,0 C 9,4 C 86 % 1014,2 hPa 0,0 l/m 0 min 0 min 0 W/m 12,9 km/h (3 Bft) 97,87 %
13.04.2020 04:02 10,4 C 10,0 C 9,4 C 86 % 1014,3 hPa 0,0 l/m 0 min 0 min 0 W/m 6,4 km/h (2 Bft) 96,67 %
13.04.2020 04:04 10,5 C 10,0 C 9,4 C 86 % 1014,3 hPa 0,0 l/m 0 min 0 min 0 W/m 6,4 km/h (2 Bft) 100,00 %
13.04.2020 04:06 10,5 C 10,0 C 9,4 C 86 % 1014,3 hPa 0,0 l/m 0 min 0 min 0 W/m 19,3 km/h (3 Bft) 97,87 %
13.04.2020 04:08 10,6 C 10,0 C 9,4 C 86 % 1014,3 hPa 0,0 l/m 0 min 0 min 0 W/m 9,7 km/h (2 Bft) 100,00 %
13.04.2020 04:10 10,6 C 10,0 C 9,4 C 86 % 1014,3 hPa 0,0 l/m 0 min 0 min 0 W/m 9,7 km/h (2 Bft) 97,87 %
13.04.2020 04:12 10,6 C 10,0 C 9,4 C 87 % 1014,4 hPa 0,0 l/m 0 min 0 min 0 W/m 9,7 km/h (2 Bft) 100,00 %
13.04.2020 04:14 10,6 C 10,0 C 9,4 C 87 % 1014,3 hPa 0,0 l/m 0 min 0 min 0 W/m 16,1 km/h (3 Bft) 100,00 %
13.04.2020 04:16 10,7 C 10,0 C 10,0 C 87 % 1014,4 hPa 0,0 l/m 0 min 0 min 0 W/m 16,1 km/h (3 Bft) 93,62 %
13.04.2020 04:18 10,7 C 10,6 C 10,0 C 87 % 1014,4 hPa 0,0 l/m 0 min 0 min 0 W/m 19,3 km/h (3 Bft) 97,87 %
13.04.2020 04:20 10,7 C 10,6 C 10,0 C 87 % 1014,4 hPa 0,0 l/m 0 min 0 min 0 W/m 16,1 km/h (3 Bft) 100,00 %
13.04.2020 04:22 10,8 C 10,6 C 10,0 C 87 % 1014,4 hPa 0,0 l/m 0 min 0 min 0 W/m 6,4 km/h (2 Bft) 100,00 %
13.04.2020 04:24 10,8 C 10,6 C 10,0 C 87 % 1014,5 hPa 0,0 l/m 0 min 0 min 0 W/m 16,1 km/h (3 Bft) 100,00 %
13.04.2020 04:26 10,8 C 10,6 C 10,0 C 87 % 1014,5 hPa 0,0 l/m 0 min 0 min 0 W/m 12,9 km/h (3 Bft) 97,83 %
13.04.2020 04:28 10,9 C 10,6 C 10,0 C 88 % 1014,5 hPa 0,0 l/m 0 min 0 min 0 W/m 12,9 km/h (3 Bft) 97,87 %
13.04.2020 04:30 10,9 C 10,6 C 10,0 C 87 % 1014,6 hPa 0,0 l/m 0 min 0 min 0 W/m 12,9 km/h (3 Bft) 97,87 %
13.04.2020 04:32 10,9 C 10,0 C 10,0 C 87 % 1014,5 hPa 0,0 l/m 0 min 0 min 0 W/m 19,3 km/h (3 Bft) 97,87 %
13.04.2020 04:34 10,9 C 10,0 C 10,0 C 87 % 1014,6 hPa 0,0 l/m 0 min 0 min 0 W/m 19,3 km/h (3 Bft) 100,00 %
13.04.2020 04:36 10,9 C 10,0 C 10,0 C 87 % 1014,7 hPa 0,0 l/m 0 min 0 min 0 W/m 9,7 km/h (2 Bft) 97,87 %
13.04.2020 04:38 10,9 C 10,0 C 10,0 C 86 % 1014,6 hPa 0,0 l/m 0 min 0 min 0 W/m 9,7 km/h (2 Bft) 97,83 %
13.04.2020 04:40 10,9 C 10,0 C 9,4 C 86 % 1014,7 hPa 0,0 l/m 0 min 0 min 0 W/m 3,2 km/h (1 Bft) 97,87 %
13.04.2020 04:42 10,9 C 10,0 C 9,4 C 86 % 1014,7 hPa 0,0 l/m 0 min 0 min 0 W/m 22,5 km/h (4 Bft) 97,87 %
13.04.2020 04:44 10,9 C 10,0 C 9,4 C 86 % 1014,7 hPa 0,0 l/m 0 min 0 min 0 W/m 9,7 km/h (2 Bft) 95,74 %
13.04.2020 04:46 10,9 C 10,0 C 9,4 C 86 % 1014,7 hPa 0,0 l/m 0 min 0 min 0 W/m 9,7 km/h (2 Bft) 97,87 %
13.04.2020 04:48 10,9 C 10,0 C 9,4 C 85 % 1014,7 hPa 0,0 l/m 0 min 0 min 0 W/m 22,5 km/h (4 Bft) 97,83 %
13.04.2020 04:50 10,8 C 10,0 C 9,4 C 85 % 1014,7 hPa 0,0 l/m 0 min 0 min 0 W/m 38,6 km/h (5 Bft) 95,74 %
13.04.2020 04:52 10,8 C 10,0 C 9,4 C 85 % 1014,7 hPa 0,0 l/m 0 min 0 min 0 W/m 12,9 km/h (3 Bft) 95,74 %
13.04.2020 04:54 10,8 C 10,0 C 9,4 C 85 % 1014,8 hPa 0,0 l/m 0 min 0 min 0 W/m 6,4 km/h (2 Bft) 93,62 %
13.04.2020 04:56 10,8 C 10,0 C 9,4 C 85 % 1014,9 hPa 0,0 l/m 0 min 0 min 0 W/m 3,2 km/h (1 Bft) 91,49 %
13.04.2020 04:58 10,8 C 9,4 C 9,4 C 85 % 1014,9 hPa 0,0 l/m 0 min 0 min 0 W/m 6,4 km/h (2 Bft) 89,36 %
13.04.2020 05:00 10,7 C 9,4 C 9,4 C 85 % 1014,9 hPa 0,0 l/m 0 min 0 min 0 W/m 6,4 km/h (2 Bft) 47,73 %
13.04.2020 05:02 10,7 C 9,4 C 9,4 C 84 % 1014,9 hPa 0,0 l/m 0 min 0 min 0 W/m 12,9 km/h (3 Bft) 95,74 %
13.04.2020 05:04 10,7 C 9,4 C 9,4 C 84 % 1015,0 hPa 0,0 l/m 0 min 0 min 0 W/m 29,0 km/h (5 Bft) 93,62 %
13.04.2020 05:06 10,6 C 9,4 C 9,4 C 84 % 1015,0 hPa 0,0 l/m 0 min 0 min 0 W/m 12,9 km/h (3 Bft) 95,74 %
13.04.2020 05:08 10,6 C 9,4 C 9,4 C 84 % 1015,0 hPa 0,0 l/m 0 min 0 min 0 W/m 12,9 km/h (3 Bft) 95,74 %
13.04.2020 05:10 10,6 C 9,4 C 9,4 C 84 % 1015,1 hPa 0,0 l/m 0 min 0 min 0 W/m 16,1 km/h (3 Bft) 93,62 %
13.04.2020 05:12 10,5 C 9,4 C 8,9 C 83 % 1015,2 hPa 0,0 l/m 0 min 0 min 0 W/m 16,1 km/h (3 Bft) 89,13 %
13.04.2020 05:14 10,4 C 9,4 C 8,9 C 83 % 1015,2 hPa 0,0 l/m 0 min 0 min 0 W/m 3,2 km/h (1 Bft) 93,62 %
13.04.2020 05:16 10,4 C 9,4 C 8,9 C 83 % 1015,2 hPa 0,0 l/m 0 min 0 min 0 W/m 16,1 km/h (3 Bft) 93,62 %
13.04.2020 05:18 10,3 C 9,4 C 8,9 C 83 % 1015,3 hPa 0,0 l/m 0 min 0 min 0 W/m 16,1 km/h (3 Bft) 93,62 %
13.04.2020 05:20 10,3 C 8,9 C 8,9 C 83 % 1015,3 hPa 0,0 l/m 0 min 0 min 0 W/m 9,7 km/h (2 Bft) 95,74 %
13.04.2020 05:22 10,3 C 8,9 C 8,9 C 83 % 1015,2 hPa 0,0 l/m 0 min 0 min 0 W/m 9,7 km/h (2 Bft) 93,62 %
13.04.2020 05:24 10,2 C 8,9 C 8,9 C 83 % 1015,2 hPa 0,0 l/m 0 min 0 min 0 W/m 6,4 km/h (2 Bft) 93,48 %
13.04.2020 05:26 10,2 C 8,9 C 8,9 C 83 % 1015,2 hPa 0,0 l/m 0 min 0 min 0 W/m 3,2 km/h (1 Bft) 93,62 %
13.04.2020 05:28 10,2 C 8,9 C 8,9 C 83 % 1015,3 hPa 0,0 l/m 0 min 0 min 0 W/m 12,9 km/h (3 Bft) 95,74 %
13.04.2020 05:30 10,1 C 8,9 C 8,9 C 83 % 1015,2 hPa 0,0 l/m 0 min 0 min 0 W/m 3,2 km/h (1 Bft) 95,74 %
13.04.2020 05:32 10,1 C 8,9 C 8,9 C 83 % 1015,3 hPa 0,0 l/m 0 min 0 min 0 W/m 12,9 km/h (3 Bft) 93,62 %
13.04.2020 05:34 10,1 C 8,9 C 8,9 C 83 % 1015,3 hPa 0,0 l/m 0 min 0 min 0 W/m 19,3 km/h (3 Bft) 95,74 %
13.04.2020 05:36 10,0 C 8,9 C 8,3 C 83 % 1015,4 hPa 0,0 l/m 0 min 0 min 0 W/m 9,7 km/h (2 Bft) 95,65 %
13.04.2020 05:38 9,9 C 8,9 C 8,3 C 83 % 1015,5 hPa 0,0 l/m 0 min 0 min 0 W/m 25,7 km/h (4 Bft) 97,87 %
13.04.2020 05:40 9,9 C 8,9 C 8,3 C 83 % 1015,5 hPa 0,0 l/m 0 min 0 min 0 W/m 19,3 km/h (3 Bft) 97,87 %
13.04.2020 05:42 9,8 C 8,3 C 8,3 C 84 % 1015,5 hPa 0,0 l/m 0 min 0 min 0 W/m 12,9 km/h (3 Bft) 95,74 %
13.04.2020 05:44 9,8 C 8,3 C 8,3 C 84 % 1015,5 hPa 0,0 l/m 0 min 0 min 0 W/m 3,2 km/h (1 Bft) 97,87 %
13.04.2020 05:46 9,8 C 8,3 C 8,3 C 84 % 1015,6 hPa 0,0 l/m 0 min 0 min 0 W/m 22,5 km/h (4 Bft) 95,65 %
13.04.2020 05:48 9,7 C 8,3 C 8,3 C 84 % 1015,6 hPa 0,0 l/m 0 min 0 min 0 W/m 12,9 km/h (3 Bft) 97,87 %
13.04.2020 05:50 9,7 C 8,3 C 8,3 C 84 % 1015,7 hPa 0,0 l/m 0 min 0 min 0 W/m 12,9 km/h (3 Bft) 95,74 %
13.04.2020 05:52 9,7 C 8,3 C 8,3 C 84 % 1015,7 hPa 0,0 l/m 0 min 0 min 0 W/m 22,5 km/h (4 Bft) 95,74 %
13.04.2020 05:54 9,6 C 8,3 C 8,3 C 84 % 1015,7 hPa 0,0 l/m 0 min 0 min 0 W/m 0,0 km/h (0 Bft) 97,87 %
13.04.2020 05:56 9,6 C 8,3 C 8,3 C 84 % 1015,7 hPa 0,0 l/m 0 min 0 min 0 W/m 9,7 km/h (2 Bft) 97,87 %
13.04.2020 05:58 9,6 C 8,3 C 8,3 C 84 % 1015,8 hPa 0,0 l/m 0 min 0 min 0 W/m 19,3 km/h (3 Bft) 95,65 %
13.04.2020 06:00 9,6 C 8,3 C 8,3 C 84 % 1015,9 hPa 0,0 l/m 0 min 0 min 0 W/m 6,4 km/h (2 Bft) 97,87 %
13.04.2020 06:02 9,6 C 8,3 C 8,3 C 84 % 1015,8 hPa 0,0 l/m 0 min 0 min 0 W/m 6,4 km/h (2 Bft) 95,74 %
13.04.2020 06:04 9,5 C 8,3 C 8,3 C 84 % 1015,9 hPa 0,0 l/m 0 min 0 min 0 W/m 16,1 km/h (3 Bft) 95,74 %
13.04.2020 06:08 9,4 C 8,3 C 8,3 C 85 % 1016,1 hPa 0,0 l/m 0 min 0 min 0 W/m 16,1 km/h (3 Bft) 96,81 %
13.04.2020 06:10 9,4 C 8,3 C 8,3 C 84 % 1016,2 hPa 0,0 l/m 0 min 0 min 0 W/m 9,7 km/h (2 Bft) 97,83 %
13.04.2020 06:12 9,4 C 8,3 C 8,3 C 84 % 1016,3 hPa 0,0 l/m 0 min 0 min 0 W/m 6,4 km/h (2 Bft) 95,74 %
13.04.2020 06:14 9,3 C 8,3 C 7,8 C 84 % 1016,4 hPa 0,0 l/m 0 min 0 min 0 W/m 16,1 km/h (3 Bft) 97,87 %
13.04.2020 06:16 9,3 C 8,3 C 7,8 C 84 % 1016,4 hPa 0,0 l/m 0 min 0 min 0 W/m 9,7 km/h (2 Bft) 97,87 %
13.04.2020 06:18 9,3 C 7,8 C 7,8 C 84 % 1016,5 hPa 0,0 l/m 0 min 0 min 0 W/m 22,5 km/h (4 Bft) 95,74 %
13.04.2020 06:20 9,2 C 7,8 C 7,8 C 84 % 1016,6 hPa 0,0 l/m 0 min 0 min 0 W/m 12,9 km/h (3 Bft) 95,74 %
13.04.2020 06:22 9,2 C 7,8 C 7,8 C 84 % 1016,5 hPa 0,0 l/m 0 min 0 min 0 W/m 12,9 km/h (3 Bft) 100,00 %
13.04.2020 06:24 9,1 C 7,8 C 7,8 C 83 % 1016,5 hPa 0,0 l/m 0 min 0 min 0 W/m 12,9 km/h (3 Bft) 95,74 %
13.04.2020 06:26 9,0 C 7,8 C 7,8 C 83 % 1016,5 hPa 0,0 l/m 0 min 0 min 0 W/m 19,3 km/h (3 Bft) 97,87 %
13.04.2020 06:28 8,9 C 7,8 C 7,8 C 82 % 1016,6 hPa 0,0 l/m 0 min 0 min 0 W/m 12,9 km/h (3 Bft) 100,00 %
13.04.2020 06:30 8,9 C 7,8 C 7,8 C 81 % 1016,6 hPa 0,0 l/m 0 min 0 min 0 W/m 16,1 km/h (3 Bft) 97,87 %
13.04.2020 06:32 8,8 C 7,8 C 7,2 C 81 % 1016,8 hPa 0,0 l/m 0 min 0 min 0 W/m 6,4 km/h (2 Bft) 97,87 %
13.04.2020 06:34 8,8 C 7,8 C 7,2 C 81 % 1016,8 hPa 0,0 l/m 0 min 0 min 0 W/m 22,5 km/h (4 Bft) 97,83 %
13.04.2020 06:36 8,7 C 7,8 C 7,2 C 81 % 1016,9 hPa 0,0 l/m 0 min 0 min 0 W/m 22,5 km/h (4 Bft) 97,87 %
13.04.2020 06:38 8,7 C 7,8 C 7,2 C 81 % 1017,0 hPa 0,0 l/m 0 min 0 min 0 W/m 9,7 km/h (2 Bft) 100,00 %
13.04.2020 06:40 8,7 C 7,8 C 7,2 C 81 % 1016,9 hPa 0,0 l/m 0 min 0 min 0 W/m 12,9 km/h (3 Bft) 95,74 %
13.04.2020 06:42 8,6 C 7,8 C 7,2 C 81 % 1017,0 hPa 0,0 l/m 0 min 0 min 0 W/m 6,4 km/h (2 Bft) 97,73 %
13.04.2020 06:44 8,6 C 7,8 C 7,2 C 81 % 1017,0 hPa 0,0 l/m 0 min 0 min 0 W/m 9,7 km/h (2 Bft) 97,87 %
13.04.2020 06:46 8,6 C 7,2 C 7,2 C 81 % 1017,1 hPa 0,0 l/m 0 min 0 min 0 W/m 9,7 km/h (2 Bft) 97,83 %
13.04.2020 06:48 8,6 C 7,2 C 7,2 C 80 % 1017,1 hPa 0,0 l/m 0 min 0 min 2 W/m 22,5 km/h (4 Bft) 100,00 %
13.04.2020 06:50 8,5 C 7,2 C 7,2 C 80 % 1017,1 hPa 0,0 l/m 0 min 0 min 5 W/m 22,5 km/h (4 Bft) 100,00 %
13.04.2020 06:52 8,5 C 7,2 C 7,2 C 80 % 1017,2 hPa 0,0 l/m 0 min 0 min 5 W/m 9,7 km/h (2 Bft) 100,00 %
13.04.2020 06:54 8,4 C 7,2 C 7,2 C 80 % 1017,1 hPa 0,0 l/m 0 min 0 min 7 W/m 3,2 km/h (1 Bft) 97,87 %
13.04.2020 06:56 8,4 C 7,2 C 7,2 C 80 % 1017,1 hPa 0,0 l/m 0 min 0 min 7 W/m 12,9 km/h (3 Bft) 97,83 %
13.04.2020 06:58 8,4 C 7,2 C 7,2 C 80 % 1017,2 hPa 0,0 l/m 0 min 0 min 8 W/m 19,3 km/h (3 Bft) 100,00 %
13.04.2020 07:00 8,4 C 7,2 C 7,2 C 80 % 1017,2 hPa 0,0 l/m 0 min 0 min 10 W/m 19,3 km/h (3 Bft) 97,87 %
13.04.2020 07:02 8,3 C 7,2 C 7,2 C 80 % 1017,4 hPa 0,0 l/m 0 min 0 min 12 W/m 16,1 km/h (3 Bft) 95,74 %
13.04.2020 07:04 8,3 C 7,2 C 7,2 C 80 % 1017,5 hPa 0,0 l/m 0 min 0 min 15 W/m 12,9 km/h (3 Bft) 96,00 %
13.04.2020 07:06 8,3 C 7,2 C 7,2 C 81 % 1017,5 hPa 0,0 l/m 0 min 0 min 18 W/m 12,9 km/h (3 Bft) 97,87 %
13.04.2020 07:08 8,3 C 7,2 C 7,2 C 81 % 1017,6 hPa 0,0 l/m 0 min 0 min 21 W/m 38,6 km/h (5 Bft) 97,87 %
13.04.2020 07:10 8,3 C 7,8 C 7,2 C 81 % 1017,7 hPa 0,0 l/m 0 min 0 min 22 W/m 12,9 km/h (3 Bft) 97,87 %
13.04.2020 07:12 8,3 C 7,8 C 7,2 C 81 % 1017,8 hPa 0,0 l/m 0 min 0 min 24 W/m 22,5 km/h (4 Bft) 93,62 %
13.04.2020 07:14 8,3 C 7,8 C 7,2 C 81 % 1017,8 hPa 0,0 l/m 0 min 0 min 24 W/m 19,3 km/h (3 Bft) 97,87 %
13.04.2020 07:16 8,3 C 7,8 C 7,2 C 81 % 1018,0 hPa 0,0 l/m 0 min 0 min 21 W/m 16,1 km/h (3 Bft) 95,65 %
13.04.2020 07:18 8,3 C 7,8 C 7,2 C 81 % 1018,0 hPa 0,0 l/m 0 min 0 min 17 W/m 16,1 km/h (3 Bft) 97,87 %
13.04.2020 07:20 8,3 C 7,8 C 7,2 C 81 % 1018,1 hPa 0,0 l/m 0 min 0 min 16 W/m 16,1 km/h (3 Bft) 97,87 %
13.04.2020 07:22 8,3 C 7,8 C 7,8 C 81 % 1018,1 hPa 0,0 l/m 0 min 0 min 16 W/m 6,4 km/h (2 Bft) 93,62 %
13.04.2020 07:24 8,3 C 7,8 C 7,8 C 81 % 1018,1 hPa 0,0 l/m 0 min 0 min 18 W/m 22,5 km/h (4 Bft) 97,87 %
13.04.2020 07:26 8,3 C 7,8 C 7,8 C 81 % 1018,2 hPa 0,0 l/m 0 min 0 min 20 W/m 19,3 km/h (3 Bft) 97,87 %
13.04.2020 07:28 8,4 C 7,8 C 7,8 C 81 % 1018,2 hPa 0,0 l/m 0 min 0 min 22 W/m 12,9 km/h (3 Bft) 97,83 %
13.04.2020 07:30 8,4 C 7,8 C 7,8 C 82 % 1018,2 hPa 0,0 l/m 0 min 0 min 24 W/m 16,1 km/h (3 Bft) 97,87 %
13.04.2020 07:32 8,4 C 7,8 C 7,8 C 82 % 1018,2 hPa 0,0 l/m 0 min 0 min 25 W/m 32,2 km/h (5 Bft) 95,74 %
13.04.2020 07:34 8,4 C 7,8 C 7,8 C 82 % 1018,3 hPa 0,0 l/m 0 min 0 min 25 W/m 19,3 km/h (3 Bft) 97,87 %
13.04.2020 07:36 8,4 C 7,8 C 7,8 C 82 % 1018,3 hPa 0,0 l/m 0 min 0 min 26 W/m 16,1 km/h (3 Bft) 93,62 %
13.04.2020 07:38 8,4 C 7,8 C 7,8 C 82 % 1018,4 hPa 0,0 l/m 0 min 0 min 26 W/m 12,9 km/h (3 Bft) 97,87 %
13.04.2020 07:40 8,5 C 7,8 C 7,8 C 82 % 1018,4 hPa 0,0 l/m 0 min 0 min 26 W/m 3,2 km/h (1 Bft) 100,00 %
13.04.2020 07:42 8,5 C 7,8 C 7,8 C 82 % 1018,5 hPa 0,0 l/m 0 min 0 min 28 W/m 19,3 km/h (3 Bft) 100,00 %
13.04.2020 07:44 8,5 C 7,8 C 7,8 C 82 % 1018,6 hPa 0,0 l/m 0 min 0 min 28 W/m 19,3 km/h (3 Bft) 97,87 %
13.04.2020 07:46 8,5 C 7,8 C 7,8 C 82 % 1018,6 hPa 0,0 l/m 0 min 0 min 31 W/m 16,1 km/h (3 Bft) 97,87 %
13.04.2020 07:48 8,6 C 7,8 C 7,8 C 82 % 1018,6 hPa 0,0 l/m 0 min 0 min 31 W/m 6,4 km/h (2 Bft) 95,74 %
13.04.2020 07:50 8,6 C 8,3 C 7,8 C 82 % 1018,7 hPa 0,0 l/m 0 min 0 min 30 W/m 16,1 km/h (3 Bft) 95,65 %
13.04.2020 07:52 8,6 C 7,8 C 7,8 C 82 % 1018,7 hPa 0,0 l/m 0 min 0 min 30 W/m 16,1 km/h (3 Bft) 97,87 %
13.04.2020 07:54 8,6 C 8,3 C 7,8 C 82 % 1018,7 hPa 0,0 l/m 0 min 0 min 30 W/m 16,1 km/h (3 Bft) 97,87 %
13.04.2020 07:56 8,6 C 7,8 C 7,8 C 82 % 1018,7 hPa 0,0 l/m 0 min 0 min 27 W/m 16,1 km/h (3 Bft) 97,87 %
13.04.2020 07:58 8,6 C 7,8 C 7,8 C 83 % 1018,8 hPa 0,0 l/m 0 min 0 min 23 W/m 12,9 km/h (3 Bft) 97,87 %
13.04.2020 08:00 8,6 C 7,8 C 7,8 C 83 % 1018,7 hPa 0,0 l/m 0 min 0 min 26 W/m 22,5 km/h (4 Bft) 95,74 %
13.04.2020 08:02 8,6 C 7,8 C 7,8 C 83 % 1018,8 hPa 0,0 l/m 0 min 0 min 30 W/m 16,1 km/h (3 Bft) 91,49 %
13.04.2020 08:04 8,6 C 7,8 C 7,8 C 83 % 1018,8 hPa 0,0 l/m 0 min 0 min 33 W/m 16,1 km/h (3 Bft) 97,83 %
13.04.2020 08:06 8,6 C 8,3 C 7,8 C 83 % 1018,9 hPa 0,0 l/m 0 min 0 min 32 W/m 6,4 km/h (2 Bft) 97,87 %
13.04.2020 08:08 8,7 C 8,3 C 7,8 C 83 % 1018,9 hPa 0,0 l/m 0 min 0 min 28 W/m 9,7 km/h (2 Bft) 91,49 %
13.04.2020 08:10 8,7 C 8,3 C 7,8 C 83 % 1019,0 hPa 0,0 l/m 0 min 0 min 26 W/m 12,9 km/h (3 Bft) 95,74 %
13.04.2020 08:12 8,7 C 8,3 C 7,8 C 83 % 1019,0 hPa 0,0 l/m 0 min 0 min 25 W/m 12,9 km/h (3 Bft) 97,87 %
13.04.2020 08:14 8,7 C 8,3 C 7,8 C 83 % 1019,0 hPa 0,0 l/m 0 min 0 min 24 W/m 9,7 km/h (2 Bft) 97,83 %
13.04.2020 08:16 8,7 C 8,3 C 7,8 C 83 % 1019,0 hPa 0,0 l/m 0 min 0 min 25 W/m 19,3 km/h (3 Bft) 97,87 %
13.04.2020 08:18 8,7 C 7,8 C 7,8 C 83 % 1019,0 hPa 0,0 l/m 0 min 0 min 28 W/m 16,1 km/h (3 Bft) 95,74 %
13.04.2020 08:20 8,7 C 7,8 C 7,8 C 83 % 1019,0 hPa 0,0 l/m 0 min 0 min 28 W/m 16,1 km/h (3 Bft) 97,87 %
13.04.2020 08:22 8,7 C 8,3 C 7,8 C 83 % 1019,1 hPa 0,0 l/m 0 min 0 min 32 W/m 9,7 km/h (2 Bft) 97,87 %
13.04.2020 08:24 8,7 C 8,3 C 7,8 C 83 % 1019,2 hPa 0,0 l/m 0 min 0 min 32 W/m 19,3 km/h (3 Bft) 97,87 %
13.04.2020 08:26 8,7 C 8,3 C 7,8 C 83 % 1019,2 hPa 0,0 l/m 0 min 0 min 31 W/m 12,9 km/h (3 Bft) 91,30 %
13.04.2020 08:28 8,7 C 8,3 C 7,8 C 83 % 1019,2 hPa 0,0 l/m 0 min 0 min 31 W/m 16,1 km/h (3 Bft) 95,74 %
13.04.2020 08:30 8,7 C 8,3 C 7,8 C 83 % 1019,2 hPa 0,0 l/m 0 min 0 min 34 W/m 12,9 km/h (3 Bft) 100,00 %
13.04.2020 08:32 8,7 C 8,3 C 7,8 C 83 % 1019,2 hPa 0,0 l/m 0 min 0 min 35 W/m 3,2 km/h (1 Bft) 100,00 %
13.04.2020 08:34 8,7 C 8,3 C 7,8 C 83 % 1019,2 hPa 0,0 l/m 0 min 0 min 36 W/m 6,4 km/h (2 Bft) 100,00 %
13.04.2020 08:37 8,6 C 8,3 C 7,8 C 83 % 1019,3 hPa 0,0 l/m 0 min 0 min 36 W/m 16,1 km/h (3 Bft) 100,00 %
13.04.2020 08:38 8,7 C 8,3 C 7,8 C 82 % 1019,2 hPa 0,0 l/m 0 min 0 min 39 W/m 0,0 km/h (0 Bft) 100,00 %
13.04.2020 08:42 8,6 C 7,8 C 7,8 C 82 % 1019,3 hPa 0,0 l/m 0 min 0 min 38 W/m 25,7 km/h (4 Bft) 100,00 %
13.04.2020 08:44 8,6 C 7,8 C 7,8 C 81 % 1019,4 hPa 0,0 l/m 0 min 0 min 38 W/m 12,9 km/h (3 Bft) 98,21 %
13.04.2020 08:46 8,6 C 7,8 C 7,8 C 81 % 1019,5 hPa 0,0 l/m 0 min 0 min 35 W/m 12,9 km/h (3 Bft) 100,00 %
13.04.2020 08:48 8,6 C 7,8 C 7,8 C 81 % 1019,4 hPa 0,0 l/m 0 min 0 min 33 W/m 22,5 km/h (4 Bft) 100,00 %
13.04.2020 08:50 8,6 C 7,8 C 7,8 C 81 % 1019,5 hPa 0,0 l/m 0 min 0 min 29 W/m 0,0 km/h (0 Bft) 100,00 %
13.04.2020 08:52 8,6 C 7,8 C 7,8 C 80 % 1019,5 hPa 0,0 l/m 0 min 0 min 31 W/m 6,4 km/h (2 Bft) 100,00 %
13.04.2020 08:54 8,6 C 7,8 C 7,8 C 80 % 1019,6 hPa 0,0 l/m 0 min 0 min 39 W/m 12,9 km/h (3 Bft) 95,74 %
13.04.2020 08:56 8,6 C 7,8 C 7,8 C 80 % 1019,5 hPa 0,0 l/m 0 min 0 min 49 W/m 12,9 km/h (3 Bft) 100,00 %
13.04.2020 08:58 8,6 C 7,8 C 7,8 C 80 % 1019,5 hPa 0,0 l/m 0 min 0 min 52 W/m 6,4 km/h (2 Bft) 100,00 %
13.04.2020 09:00 8,6 C 7,8 C 7,8 C 80 % 1019,5 hPa 0,0 l/m 0 min 0 min 48 W/m 25,7 km/h (4 Bft) 100,00 %
13.04.2020 09:02 8,6 C 7,8 C 7,8 C 80 % 1019,6 hPa 0,0 l/m 0 min 0 min 46 W/m 12,9 km/h (3 Bft) 100,00 %
13.04.2020 09:04 8,5 C 7,8 C 7,8 C 80 % 1019,6 hPa 0,0 l/m 0 min 0 min 42 W/m 22,5 km/h (4 Bft) 100,00 %
13.04.2020 09:06 8,5 C 7,8 C 7,8 C 80 % 1019,7 hPa 0,0 l/m 0 min 0 min 44 W/m 0,0 km/h (0 Bft) 100,00 %
13.04.2020 09:08 8,5 C 7,8 C 7,8 C 80 % 1019,7 hPa 0,0 l/m 0 min 0 min 42 W/m 19,3 km/h (3 Bft) 97,87 %
13.04.2020 09:10 8,5 C 7,8 C 7,8 C 80 % 1019,8 hPa 0,0 l/m 0 min 0 min 45 W/m 6,4 km/h (2 Bft) 94,74 %
13.04.2020 09:12 8,5 C 7,8 C 7,8 C 80 % 1019,8 hPa 0,0 l/m 0 min 0 min 46 W/m 32,2 km/h (5 Bft) 93,48 %
13.04.2020 09:14 8,5 C 7,8 C 7,8 C 79 % 1019,9 hPa 0,0 l/m 0 min 0 min 44 W/m 19,3 km/h (3 Bft) 95,74 %
13.04.2020 09:16 8,5 C 7,8 C 7,8 C 79 % 1019,9 hPa 0,0 l/m 0 min 0 min 44 W/m 22,5 km/h (4 Bft) 97,87 %
13.04.2020 09:18 8,4 C 7,8 C 7,8 C 79 % 1019,9 hPa 0,0 l/m 0 min 0 min 46 W/m 12,9 km/h (3 Bft) 97,87 %
13.04.2020 09:20 8,4 C 7,8 C 7,8 C 79 % 1019,9 hPa 0,0 l/m 0 min 0 min 49 W/m 25,7 km/h (4 Bft) 95,74 %
13.04.2020 09:22 8,4 C 7,8 C 7,8 C 79 % 1020,0 hPa 0,0 l/m 0 min 0 min 45 W/m 16,1 km/h (3 Bft) 93,62 %
13.04.2020 09:24 8,4 C 7,8 C 7,8 C 79 % 1020,1 hPa 0,0 l/m 0 min 0 min 40 W/m 19,3 km/h (3 Bft) 97,83 %
13.04.2020 09:26 8,4 C 7,8 C 7,8 C 78 % 1020,1 hPa 0,0 l/m 0 min 0 min 38 W/m 19,3 km/h (3 Bft) 95,74 %
13.04.2020 09:28 8,3 C 7,8 C 7,8 C 78 % 1020,1 hPa 0,0 l/m 0 min 0 min 38 W/m 22,5 km/h (4 Bft) 97,87 %
13.04.2020 09:30 8,3 C 7,8 C 7,8 C 78 % 1020,2 hPa 0,0 l/m 0 min 0 min 48 W/m 16,1 km/h (3 Bft) 97,87 %
13.04.2020 09:32 8,3 C 7,8 C 7,8 C 79 % 1020,2 hPa 0,0 l/m 0 min 0 min 61 W/m 6,4 km/h (2 Bft) 89,36 %
13.04.2020 09:34 8,3 C 7,8 C 7,8 C 79 % 1020,1 hPa 0,0 l/m 0 min 0 min 74 W/m 16,1 km/h (3 Bft) 93,62 %
13.04.2020 09:36 8,3 C 7,8 C 7,8 C 79 % 1020,0 hPa 0,0 l/m 0 min 0 min 82 W/m 3,2 km/h (1 Bft) 95,65 %
13.04.2020 09:38 8,3 C 8,3 C 7,8 C 79 % 1020,0 hPa 0,0 l/m 0 min 0 min 79 W/m 0,0 km/h (0 Bft) 95,74 %
13.04.2020 09:40 8,3 C 7,8 C 7,8 C 79 % 1020,0 hPa 0,0 l/m 0 min 2 min 76 W/m 19,3 km/h (3 Bft) 95,74 %
13.04.2020 09:42 8,3 C 7,8 C 7,8 C 79 % 1020,1 hPa 0,0 l/m 0 min 2 min 72 W/m 9,7 km/h (2 Bft) 95,74 %
13.04.2020 09:44 8,3 C 7,8 C 7,8 C 80 % 1020,1 hPa 0,0 l/m 0 min 2 min 68 W/m 6,4 km/h (2 Bft) 95,74 %
13.04.2020 09:46 8,3 C 7,8 C 7,2 C 80 % 1020,2 hPa 0,0 l/m 0 min 2 min 66 W/m 6,4 km/h (2 Bft) 93,62 %
13.04.2020 09:48 8,3 C 7,8 C 7,2 C 80 % 1020,2 hPa 0,0 l/m 0 min 0 min 68 W/m 3,2 km/h (1 Bft) 95,74 %
13.04.2020 09:50 8,3 C 7,8 C 7,2 C 80 % 1020,3 hPa 0,0 l/m 0 min 0 min 73 W/m 3,2 km/h (1 Bft) 95,74 %
13.04.2020 09:52 8,3 C 7,8 C 7,2 C 80 % 1020,4 hPa 0,0 l/m 0 min 0 min 77 W/m 9,7 km/h (2 Bft) 93,48 %
13.04.2020 09:54 8,2 C 7,8 C 7,2 C 80 % 1020,4 hPa 0,0 l/m 0 min 0 min 81 W/m 32,2 km/h (5 Bft) 95,74 %
13.04.2020 09:56 8,2 C 7,8 C 7,8 C 80 % 1020,5 hPa 0,0 l/m 0 min 0 min 89 W/m 12,9 km/h (3 Bft) 87,23 %
13.04.2020 09:58 8,2 C 7,8 C 7,8 C 79 % 1020,5 hPa 0,0 l/m 0 min 0 min 94 W/m 19,3 km/h (3 Bft) 60,00 %
13.04.2020 10:00 8,2 C 7,8 C 7,8 C 79 % 1020,6 hPa 0,0 l/m 0 min 0 min 105 W/m 6,4 km/h (2 Bft) 93,62 %
13.04.2020 10:02 8,2 C 8,3 C 7,8 C 78 % 1020,6 hPa 0,0 l/m 0 min 0 min 130 W/m 19,3 km/h (3 Bft) 95,74 %
13.04.2020 10:04 8,2 C 8,3 C 8,3 C 78 % 1020,6 hPa 0,0 l/m 0 min 0 min 146 W/m 22,5 km/h (4 Bft) 95,65 %
13.04.2020 10:06 8,2 C 8,3 C 8,3 C 77 % 1020,7 hPa 0,0 l/m 0 min 0 min 158 W/m 25,7 km/h (4 Bft) 93,62 %
13.04.2020 10:08 8,2 C 8,3 C 8,3 C 77 % 1020,7 hPa 0,0 l/m 0 min 0 min 163 W/m 12,9 km/h (3 Bft) 95,74 %
13.04.2020 10:10 8,2 C 8,9 C 8,3 C 76 % 1020,7 hPa 0,0 l/m 0 min 0 min 174 W/m 16,1 km/h (3 Bft) 95,74 %
13.04.2020 10:12 8,3 C 8,9 C 8,3 C 76 % 1020,8 hPa 0,0 l/m 0 min 0 min 168 W/m 22,5 km/h (4 Bft) 97,87 %
13.04.2020 10:14 8,3 C 8,9 C 8,9 C 75 % 1020,8 hPa 0,0 l/m 0 min 0 min 154 W/m 0,0 km/h (0 Bft) 95,74 %
13.04.2020 10:16 8,3 C 8,9 C 8,9 C 75 % 1020,8 hPa 0,0 l/m 0 min 0 min 151 W/m 0,0 km/h (0 Bft) 95,65 %
13.04.2020 10:18 8,4 C 8,9 C 8,9 C 75 % 1020,9 hPa 0,0 l/m 0 min 0 min 150 W/m 0,0 km/h (0 Bft) 100,00 %
13.04.2020 10:20 8,4 C 8,9 C 8,9 C 75 % 1020,9 hPa 0,0 l/m 0 min 0 min 153 W/m 19,3 km/h (3 Bft) 100,00 %
13.04.2020 10:22 8,4 C 8,9 C 8,3 C 74 % 1020,9 hPa 0,0 l/m 0 min 0 min 148 W/m 9,7 km/h (2 Bft) 100,00 %
13.04.2020 10:24 8,5 C 8,9 C 8,3 C 74 % 1021,0 hPa 0,0 l/m 0 min 0 min 145 W/m 6,4 km/h (2 Bft) 95,74 %
13.04.2020 10:26 8,5 C 8,9 C 8,3 C 74 % 1021,1 hPa 0,0 l/m 0 min 0 min 142 W/m 16,1 km/h (3 Bft) 97,87 %
13.04.2020 10:28 8,5 C 8,9 C 8,3 C 74 % 1021,1 hPa 0,0 l/m 0 min 0 min 143 W/m 9,7 km/h (2 Bft) 100,00 %
13.04.2020 10:30 8,6 C 8,9 C 8,3 C 74 % 1021,1 hPa 0,0 l/m 0 min 0 min 146 W/m 16,1 km/h (3 Bft) 100,00 %
13.04.2020 10:32 8,6 C 8,9 C 8,3 C 73 % 1021,1 hPa 0,0 l/m 0 min 0 min 159 W/m 12,9 km/h (3 Bft) 95,65 %
13.04.2020 10:34 8,6 C 8,9 C 8,9 C 73 % 1021,1 hPa 0,0 l/m 0 min 0 min 177 W/m 16,1 km/h (3 Bft) 97,87 %
13.04.2020 10:36 8,6 C 8,9 C 8,9 C 73 % 1021,0 hPa 0,0 l/m 0 min 0 min 184 W/m 9,7 km/h (2 Bft) 97,87 %
13.04.2020 10:38 8,6 C 8,9 C 8,9 C 72 % 1021,1 hPa 0,0 l/m 0 min 0 min 191 W/m 16,1 km/h (3 Bft) 97,87 %
13.04.2020 10:40 8,6 C 9,4 C 8,9 C 73 % 1021,1 hPa 0,0 l/m 0 min 0 min 208 W/m 16,1 km/h (3 Bft) 97,87 %
13.04.2020 10:42 8,7 C 9,4 C 9,4 C 73 % 1021,1 hPa 0,0 l/m 0 min 0 min 226 W/m 22,5 km/h (4 Bft) 97,37 %
13.04.2020 10:44 8,7 C 9,4 C 9,4 C 73 % 1021,1 hPa 0,0 l/m 0 min 0 min 232 W/m 22,5 km/h (4 Bft) 97,87 %
13.04.2020 10:46 8,7 C 9,4 C 9,4 C 73 % 1021,1 hPa 0,0 l/m 0 min 0 min 230 W/m 25,7 km/h (4 Bft) 97,83 %
13.04.2020 10:48 8,8 C 9,4 C 9,4 C 72 % 1021,2 hPa 0,0 l/m 0 min 0 min 208 W/m 16,1 km/h (3 Bft) 95,74 %
13.04.2020 10:50 8,8 C 9,4 C 9,4 C 72 % 1021,2 hPa 0,0 l/m 0 min 0 min 182 W/m 12,9 km/h (3 Bft) 97,87 %
13.04.2020 10:52 8,8 C 9,4 C 8,9 C 72 % 1021,3 hPa 0,0 l/m 0 min 0 min 168 W/m 19,3 km/h (3 Bft) 95,74 %
13.04.2020 10:54 8,8 C 9,4 C 8,9 C 72 % 1021,3 hPa 0,0 l/m 0 min 0 min 154 W/m 0,0 km/h (0 Bft) 95,74 %
13.04.2020 10:56 8,8 C 8,9 C 8,9 C 72 % 1021,3 hPa 0,0 l/m 0 min 0 min 140 W/m 6,4 km/h (2 Bft) 97,87 %
13.04.2020 10:58 8,8 C 8,9 C 8,3 C 72 % 1021,5 hPa 0,0 l/m 0 min 0 min 151 W/m 22,5 km/h (4 Bft) 97,83 %
13.04.2020 11:00 8,8 C 8,3 C 8,3 C 71 % 1021,5 hPa 0,0 l/m 0 min 0 min 154 W/m 16,1 km/h (3 Bft) 95,74 %
13.04.2020 11:02 8,8 C 8,9 C 8,9 C 72 % 1021,5 hPa 0,0 l/m 0 min 0 min 151 W/m 0,0 km/h (0 Bft) 97,87 %
13.04.2020 11:04 8,7 C 8,9 C 8,9 C 72 % 1021,6 hPa 0,0 l/m 0 min 0 min 155 W/m 6,4 km/h (2 Bft) 97,87 %
13.04.2020 11:06 8,8 C 8,9 C 8,9 C 72 % 1021,6 hPa 0,0 l/m 0 min 0 min 178 W/m 9,7 km/h (2 Bft) 95,74 %
13.04.2020 11:08 8,8 C 9,4 C 8,9 C 72 % 1021,5 hPa 0,0 l/m 0 min 0 min 200 W/m 6,4 km/h (2 Bft) 97,83 %
13.04.2020 11:10 8,8 C 9,4 C 9,4 C 72 % 1021,6 hPa 0,0 l/m 0 min 0 min 226 W/m 6,4 km/h (2 Bft) 97,87 %
13.04.2020 11:12 8,8 C 9,4 C 9,4 C 71 % 1021,6 hPa 0,0 l/m 0 min 0 min 249 W/m 0,0 km/h (0 Bft) 95,74 %
13.04.2020 11:14 8,8 C 10,0 C 9,4 C 72 % 1021,8 hPa 0,0 l/m 0 min 0 min 294 W/m 3,2 km/h (1 Bft) 97,87 %
13.04.2020 11:16 8,8 C 10,0 C 10,0 C 72 % 1021,7 hPa 0,0 l/m 0 min 0 min 278 W/m 0,0 km/h (0 Bft) 95,74 %
13.04.2020 11:18 8,9 C 10,0 C 10,0 C 72 % 1021,8 hPa 0,0 l/m 0 min 0 min 272 W/m 9,7 km/h (2 Bft) 100,00 %
13.04.2020 11:20 8,9 C 10,0 C 10,0 C 72 % 1021,8 hPa 0,0 l/m 0 min 0 min 238 W/m 3,2 km/h (1 Bft) 100,00 %
13.04.2020 11:22 8,9 C 10,0 C 9,4 C 72 % 1021,8 hPa 0,0 l/m 0 min 0 min 211 W/m 0,0 km/h (0 Bft) 97,87 %
13.04.2020 11:24 8,9 C 9,4 C 9,4 C 72 % 1021,8 hPa 0,0 l/m 0 min 0 min 206 W/m 0,0 km/h (0 Bft) 100,00 %
13.04.2020 11:26 8,9 C 9,4 C 9,4 C 71 % 1021,8 hPa 0,0 l/m 0 min 0 min 212 W/m 22,5 km/h (4 Bft) 100,00 %
13.04.2020 11:28 8,9 C 9,4 C 9,4 C 70 % 1021,9 hPa 0,0 l/m 0 min 0 min 192 W/m 0,0 km/h (0 Bft) 97,87 %
13.04.2020 11:30 8,9 C 8,9 C 8,9 C 70 % 1022,0 hPa 0,0 l/m 0 min 0 min 188 W/m 12,9 km/h (3 Bft) 97,87 %
13.04.2020 11:32 8,9 C 8,9 C 8,9 C 69 % 1022,0 hPa 0,0 l/m 0 min 0 min 204 W/m 3,2 km/h (1 Bft) 97,83 %
13.04.2020 11:34 8,8 C 9,4 C 9,4 C 69 % 1022,0 hPa 0,0 l/m 0 min 0 min 226 W/m 0,0 km/h (0 Bft) 100,00 %
13.04.2020 11:36 8,8 C 9,4 C 9,4 C 69 % 1022,0 hPa 0,0 l/m 0 min 0 min 253 W/m 19,3 km/h (3 Bft) 100,00 %
13.04.2020 11:38 8,8 C 9,4 C 9,4 C 69 % 1022,1 hPa 0,0 l/m 0 min 0 min 241 W/m 16,1 km/h (3 Bft) 97,87 %
13.04.2020 11:40 8,9 C 10,0 C 9,4 C 69 % 1022,2 hPa 0,0 l/m 0 min 0 min 256 W/m 0,0 km/h (0 Bft) 100,00 %
13.04.2020 11:42 8,9 C 10,0 C 10,0 C 69 % 1022,1 hPa 0,0 l/m 0 min 0 min 249 W/m 25,7 km/h (4 Bft) 97,87 %
13.04.2020 11:44 8,9 C 10,0 C 9,4 C 68 % 1022,1 hPa 0,0 l/m 0 min 0 min 241 W/m 9,7 km/h (2 Bft) 100,00 %
13.04.2020 11:46 8,9 C 10,0 C 9,4 C 68 % 1022,2 hPa 0,0 l/m 0 min 0 min 254 W/m 0,0 km/h (0 Bft) 97,87 %
13.04.2020 11:48 8,9 C 10,0 C 10,0 C 68 % 1022,3 hPa 0,0 l/m 0 min 0 min 258 W/m 3,2 km/h (1 Bft) 100,00 %
13.04.2020 11:50 9,0 C 10,0 C 10,0 C 69 % 1022,3 hPa 0,0 l/m 0 min 0 min 274 W/m 16,1 km/h (3 Bft) 100,00 %
13.04.2020 11:52 9,1 C 10,6 C 10,0 C 69 % 1022,3 hPa 0,0 l/m 0 min 0 min 300 W/m 3,2 km/h (1 Bft) 95,74 %
13.04.2020 11:54 9,1 C 11,1 C 10,6 C 68 % 1022,4 hPa 0,0 l/m 0 min 0 min 328 W/m 3,2 km/h (1 Bft) 95,74 %
13.04.2020 11:56 9,2 C 11,7 C 11,1 C 68 % 1022,4 hPa 0,0 l/m 2 min 0 min 391 W/m 0,0 km/h (0 Bft) 97,87 %
13.04.2020 11:58 9,3 C 12,2 C 11,1 C 67 % 1022,3 hPa 0,0 l/m 2 min 0 min 414 W/m 6,4 km/h (2 Bft) 97,87 %
13.04.2020 12:00 9,4 C 12,2 C 11,1 C 66 % 1022,4 hPa 0,0 l/m 2 min 0 min 464 W/m 0,0 km/h (0 Bft) 97,83 %
13.04.2020 12:02 9,5 C 12,2 C 11,1 C 66 % 1022,4 hPa 0,0 l/m 2 min 0 min 399 W/m 9,7 km/h (2 Bft) 93,62 %
13.04.2020 12:04 9,6 C 11,7 C 11,1 C 65 % 1022,4 hPa 0,0 l/m 2 min 0 min 372 W/m 16,1 km/h (3 Bft) 97,87 %
13.04.2020 12:08 9,7 C 12,2 C 11,7 C 64 % 1022,5 hPa 0,0 l/m 4 min 0 min 390 W/m 29,0 km/h (5 Bft) 100,00 %
13.04.2020 12:10 9,7 C 12,2 C 11,1 C 64 % 1022,5 hPa 0,0 l/m 2 min 0 min 530 W/m 16,1 km/h (3 Bft) 100,00 %
13.04.2020 12:12 9,7 C 11,7 C 11,1 C 64 % 1022,5 hPa 0,0 l/m 0 min 0 min 339 W/m 3,2 km/h (1 Bft) 100,00 %
13.04.2020 12:14 9,8 C 11,1 C 10,6 C 64 % 1022,4 hPa 0,0 l/m 0 min 0 min 282 W/m 6,4 km/h (2 Bft) 97,73 %
13.04.2020 12:16 9,8 C 11,1 C 10,6 C 63 % 1022,5 hPa 0,0 l/m 0 min 0 min 306 W/m 9,7 km/h (2 Bft) 97,87 %
13.04.2020 12:18 9,7 C 11,1 C 10,6 C 63 % 1022,5 hPa 0,0 l/m 2 min 0 min 355 W/m 22,5 km/h (4 Bft) 97,83 %
13.04.2020 12:20 9,8 C 11,7 C 11,1 C 63 % 1022,6 hPa 0,0 l/m 2 min 0 min 358 W/m 9,7 km/h (2 Bft) 95,74 %
13.04.2020 12:22 9,8 C 11,7 C 11,1 C 63 % 1022,5 hPa 0,0 l/m 2 min 0 min 382 W/m 9,7 km/h (2 Bft) 97,87 %
13.04.2020 12:24 9,8 C 12,2 C 11,7 C 63 % 1022,5 hPa 0,0 l/m 2 min 0 min 431 W/m 12,9 km/h (3 Bft) 97,87 %
13.04.2020 12:26 9,8 C 12,8 C 11,1 C 62 % 1022,6 hPa 0,0 l/m 2 min 0 min 449 W/m 22,5 km/h (4 Bft) 91,49 %
13.04.2020 12:28 9,9 C 12,8 C 11,1 C 61 % 1022,6 hPa 0,0 l/m 2 min 0 min 508 W/m 25,7 km/h (4 Bft) 95,74 %
13.04.2020 12:30 9,8 C 12,8 C 10,6 C 60 % 1022,5 hPa 0,0 l/m 2 min 0 min 546 W/m 35,4 km/h (5 Bft) 95,65 %
13.04.2020 12:32 9,9 C 13,9 C 11,7 C 61 % 1022,6 hPa 0,0 l/m 2 min 0 min 597 W/m 12,9 km/h (3 Bft) 93,62 %
13.04.2020 12:34 10,1 C 13,9 C 11,7 C 61 % 1022,6 hPa 0,0 l/m 2 min 0 min 593 W/m 16,1 km/h (3 Bft) 100,00 %
13.04.2020 12:36 10,1 C 13,9 C 11,7 C 60 % 1022,6 hPa 0,0 l/m 2 min 0 min 615 W/m 19,3 km/h (3 Bft) 93,62 %
13.04.2020 12:38 10,2 C 14,4 C 11,7 C 60 % 1022,5 hPa 0,0 l/m 2 min 0 min 641 W/m 19,3 km/h (3 Bft) 94,00 %
13.04.2020 12:40 10,3 C 15,6 C 12,2 C 61 % 1022,5 hPa 0,0 l/m 2 min 0 min 667 W/m 9,7 km/h (2 Bft) 97,87 %
13.04.2020 12:42 10,4 C 14,4 C 12,2 C 60 % 1022,5 hPa 0,0 l/m 2 min 0 min 579 W/m 22,5 km/h (4 Bft) 93,62 %
13.04.2020 12:44 10,5 C 14,4 C 12,2 C 60 % 1022,5 hPa 0,0 l/m 2 min 0 min 476 W/m 19,3 km/h (3 Bft) 95,74 %
13.04.2020 12:46 10,6 C 13,9 C 11,7 C 59 % 1022,6 hPa 0,0 l/m 2 min 0 min 470 W/m 29,0 km/h (5 Bft) 93,48 %
13.04.2020 12:48 10,6 C 13,3 C 12,2 C 59 % 1022,7 hPa 0,0 l/m 2 min 0 min 558 W/m 19,3 km/h (3 Bft) 95,74 %
13.04.2020 12:50 10,6 C 12,8 C 11,7 C 58 % 1022,6 hPa 0,0 l/m 2 min 0 min 480 W/m 32,2 km/h (5 Bft) 91,49 %
13.04.2020 12:52 10,6 C 12,2 C 11,1 C 57 % 1022,6 hPa 0,0 l/m 2 min 0 min 395 W/m 45,1 km/h (6 Bft) 95,74 %
13.04.2020 12:54 10,5 C 13,9 C 11,7 C 59 % 1022,7 hPa 0,0 l/m 0 min 0 min 348 W/m 16,1 km/h (3 Bft) 91,49 %
13.04.2020 12:56 10,6 C 15,0 C 12,2 C 59 % 1022,7 hPa 0,0 l/m 0 min 0 min 348 W/m 9,7 km/h (2 Bft) 93,62 %
13.04.2020 12:58 10,7 C 15,6 C 12,2 C 59 % 1022,8 hPa 0,0 l/m 0 min 0 min 348 W/m 35,4 km/h (5 Bft) 95,65 %
13.04.2020 13:00 10,7 C 15,0 C 12,2 C 57 % 1022,8 hPa 0,0 l/m 0 min 0 min 348 W/m 35,4 km/h (5 Bft) 95,74 %
13.04.2020 13:02 10,8 C 16,7 C 12,8 C 59 % 1022,9 hPa 0,0 l/m 2 min 0 min 730 W/m 0,0 km/h (0 Bft) 97,87 %
13.04.2020 13:04 11,0 C 17,8 C 12,8 C 59 % 1022,8 hPa 0,0 l/m 2 min 0 min 817 W/m 16,1 km/h (3 Bft) 91,49 %
13.04.2020 13:06 11,1 C 18,3 C 12,8 C 59 % 1022,9 hPa 0,0 l/m 2 min 0 min 802 W/m 12,9 km/h (3 Bft) 91,49 %
13.04.2020 13:08 11,3 C 17,8 C 12,8 C 57 % 1022,9 hPa 0,0 l/m 2 min 0 min 807 W/m 16,1 km/h (3 Bft) 91,30 %
13.04.2020 13:10 11,4 C 17,8 C 13,3 C 58 % 1022,9 hPa 0,0 l/m 2 min 0 min 717 W/m 22,5 km/h (4 Bft) 93,18 %
13.04.2020 13:12 11,6 C 16,7 C 12,8 C 55 % 1023,0 hPa 0,0 l/m 2 min 0 min 730 W/m 29,0 km/h (5 Bft) 93,62 %
13.04.2020 13:14 11,6 C 16,1 C 12,8 C 55 % 1022,9 hPa 0,0 l/m 2 min 0 min 813 W/m 29,0 km/h (5 Bft) 96,00 %
13.04.2020 13:16 11,6 C 16,7 C 12,8 C 56 % 1022,9 hPa 0,0 l/m 2 min 0 min 826 W/m 9,7 km/h (2 Bft) 93,48 %
13.04.2020 13:18 11,7 C 17,2 C 12,8 C 56 % 1022,8 hPa 0,0 l/m 2 min 0 min 785 W/m 22,5 km/h (4 Bft) 91,49 %
13.04.2020 13:20 11,8 C 17,2 C 12,8 C 55 % 1023,0 hPa 0,0 l/m 2 min 0 min 785 W/m 29,0 km/h (5 Bft) 93,62 %
13.04.2020 13:22 11,8 C 16,7 C 12,8 C 55 % 1023,0 hPa 0,0 l/m 2 min 0 min 737 W/m 22,5 km/h (4 Bft) 93,62 %
13.04.2020 13:24 11,9 C 17,2 C 12,8 C 55 % 1022,9 hPa 0,0 l/m 2 min 0 min 801 W/m 19,3 km/h (3 Bft) 95,74 %
13.04.2020 13:26 12,0 C 17,2 C 13,3 C 54 % 1022,9 hPa 0,0 l/m 2 min 0 min 844 W/m 32,2 km/h (5 Bft) 95,74 %
13.04.2020 13:28 12,1 C 17,8 C 13,3 C 54 % 1023,0 hPa 0,0 l/m 2 min 0 min 847 W/m 9,7 km/h (2 Bft) 93,48 %
13.04.2020 13:30 12,1 C 16,7 C 13,3 C 54 % 1022,9 hPa 0,0 l/m 2 min 0 min 847 W/m 12,9 km/h (3 Bft) 95,24 %
13.04.2020 13:32 12,2 C 17,2 C 13,3 C 53 % 1023,0 hPa 0,0 l/m 2 min 0 min 826 W/m 22,5 km/h (4 Bft) 95,74 %
13.04.2020 13:34 12,2 C 17,8 C 13,3 C 54 % 1022,9 hPa 0,0 l/m 2 min 0 min 813 W/m 12,9 km/h (3 Bft) 95,74 %
13.04.2020 13:36 12,3 C 17,8 C 13,9 C 55 % 1023,0 hPa 0,0 l/m 2 min 0 min 858 W/m 22,5 km/h (4 Bft) 95,74 %
13.04.2020 13:38 12,3 C 18,9 C 16,7 C 54 % 1022,9 hPa 0,0 l/m 2 min 0 min 847 W/m 12,9 km/h (3 Bft) 91,49 %
13.04.2020 13:40 12,4 C 18,9 C 18,9 C 54 % 1022,9 hPa 0,0 l/m 2 min 0 min 930 W/m 25,7 km/h (4 Bft) 95,83 %
13.04.2020 13:42 12,5 C 17,2 C 17,8 C 52 % 1022,9 hPa 0,0 l/m 2 min 0 min 981 W/m 16,1 km/h (3 Bft) 93,62 %
13.04.2020 13:44 12,6 C 16,1 C 16,7 C 53 % 1022,9 hPa 0,0 l/m 2 min 0 min 981 W/m 19,3 km/h (3 Bft) 97,87 %
13.04.2020 13:46 12,5 C 16,7 C 18,3 C 52 % 1022,8 hPa 0,0 l/m 2 min 0 min 939 W/m 22,5 km/h (4 Bft) 97,87 %
13.04.2020 13:48 12,5 C 16,7 C 17,8 C 52 % 1022,9 hPa 0,0 l/m 2 min 0 min 904 W/m 32,2 km/h (5 Bft) 97,87 %
13.04.2020 13:50 12,5 C 17,2 C 18,9 C 53 % 1022,9 hPa 0,0 l/m 2 min 0 min 820 W/m 19,3 km/h (3 Bft) 95,74 %
13.04.2020 13:52 12,5 C 16,7 C 18,9 C 51 % 1022,8 hPa 0,0 l/m 2 min 0 min 806 W/m 22,5 km/h (4 Bft) 95,92 %
13.04.2020 13:54 12,4 C 17,2 C 19,4 C 52 % 1022,8 hPa 0,0 l/m 2 min 0 min 794 W/m 22,5 km/h (4 Bft) 97,87 %
13.04.2020 13:56 12,4 C 17,2 C 19,4 C 52 % 1022,8 hPa 0,0 l/m 2 min 0 min 769 W/m 25,7 km/h (4 Bft) 97,87 %
13.04.2020 13:58 12,4 C 15,6 C 18,3 C 51 % 1022,8 hPa 0,0 l/m 2 min 0 min 760 W/m 41,8 km/h (6 Bft) 97,87 %
13.04.2020 14:00 12,3 C 16,7 C 18,3 C 51 % 1022,8 hPa 0,0 l/m 2 min 0 min 748 W/m 19,3 km/h (3 Bft) 93,62 %
13.04.2020 14:02 12,4 C 16,7 C 18,9 C 51 % 1022,9 hPa 0,0 l/m 2 min 0 min 800 W/m 19,3 km/h (3 Bft) 95,65 %
13.04.2020 14:04 12,4 C 17,2 C 19,4 C 51 % 1022,8 hPa 0,0 l/m 2 min 0 min 852 W/m 19,3 km/h (3 Bft) 97,87 %
13.04.2020 14:06 12,4 C 17,2 C 18,9 C 52 % 1022,8 hPa 0,0 l/m 2 min 0 min 823 W/m 25,7 km/h (4 Bft) 95,74 %
13.04.2020 14:08 12,4 C 17,2 C 19,4 C 51 % 1022,8 hPa 0,0 l/m 2 min 0 min 778 W/m 19,3 km/h (3 Bft) 97,87 %
13.04.2020 14:10 12,4 C 16,7 C 18,9 C 51 % 1022,9 hPa 0,0 l/m 2 min 0 min 818 W/m 22,5 km/h (4 Bft) 97,87 %
13.04.2020 14:12 12,4 C 17,2 C 19,4 C 51 % 1022,8 hPa 0,0 l/m 2 min 0 min 823 W/m 19,3 km/h (3 Bft) 95,74 %
13.04.2020 14:14 12,5 C 17,8 C 20,6 C 53 % 1022,9 hPa 0,0 l/m 2 min 0 min 818 W/m 25,7 km/h (4 Bft) 95,74 %
13.04.2020 14:16 12,6 C 17,8 C 20,6 C 52 % 1022,9 hPa 0,0 l/m 2 min 0 min 787 W/m 25,7 km/h (4 Bft) 97,87 %
13.04.2020 14:18 12,7 C 18,3 C 21,1 C 53 % 1022,9 hPa 0,0 l/m 2 min 0 min 801 W/m 19,3 km/h (3 Bft) 97,83 %
13.04.2020 14:20 12,7 C 18,9 C 21,7 C 52 % 1023,0 hPa 0,0 l/m 2 min 0 min 811 W/m 12,9 km/h (3 Bft) 97,87 %
13.04.2020 14:22 12,8 C 18,3 C 21,7 C 52 % 1022,9 hPa 0,0 l/m 2 min 0 min 844 W/m 25,7 km/h (4 Bft) 93,62 %
13.04.2020 14:24 12,9 C 18,9 C 21,7 C 52 % 1022,9 hPa 0,0 l/m 2 min 0 min 858 W/m 16,1 km/h (3 Bft) 97,87 %
13.04.2020 14:26 12,9 C 18,3 C 21,1 C 50 % 1022,8 hPa 0,0 l/m 2 min 0 min 846 W/m 16,1 km/h (3 Bft) 97,87 %
13.04.2020 14:28 13,0 C 17,8 C 20,6 C 51 % 1022,9 hPa 0,0 l/m 2 min 0 min 796 W/m 25,7 km/h (4 Bft) 97,87 %
13.04.2020 14:30 13,1 C 17,8 C 20,0 C 51 % 1022,8 hPa 0,0 l/m 2 min 0 min 748 W/m 22,5 km/h (4 Bft) 97,83 %
13.04.2020 14:32 13,1 C 17,8 C 18,9 C 51 % 1022,8 hPa 0,0 l/m 2 min 0 min 774 W/m 16,1 km/h (3 Bft) 97,87 %
13.04.2020 14:34 13,1 C 17,2 C 17,2 C 50 % 1022,9 hPa 0,0 l/m 2 min 0 min 714 W/m 22,5 km/h (4 Bft) 97,87 %
13.04.2020 14:37 13,1 C 17,2 C 15,0 C 50 % 1022,9 hPa 0,0 l/m 3 min 0 min 770 W/m 16,1 km/h (3 Bft) 97,14 %
13.04.2020 14:38 13,0 C 17,2 C 14,4 C 50 % 1022,8 hPa 0,0 l/m 1 min 0 min 778 W/m 9,7 km/h (2 Bft) 100,00 %
13.04.2020 14:42 13,0 C 17,2 C 13,9 C 50 % 1022,8 hPa 0,0 l/m 4 min 0 min 826 W/m 25,7 km/h (4 Bft) 97,30 %
13.04.2020 14:44 13,0 C 17,8 C 13,9 C 52 % 1022,9 hPa 0,0 l/m 2 min 0 min 822 W/m 22,5 km/h (4 Bft) 100,00 %
13.04.2020 14:46 13,1 C 18,3 C 13,9 C 51 % 1022,8 hPa 0,0 l/m 2 min 0 min 817 W/m 35,4 km/h (5 Bft) 100,00 %
13.04.2020 14:48 13,1 C 18,3 C 14,4 C 51 % 1022,9 hPa 0,0 l/m 2 min 0 min 814 W/m 19,3 km/h (3 Bft) 98,00 %
13.04.2020 14:50 13,1 C 17,8 C 13,9 C 50 % 1022,9 hPa 0,0 l/m 2 min 0 min 811 W/m 19,3 km/h (3 Bft) 97,92 %
13.04.2020 14:52 13,1 C 18,3 C 13,9 C 51 % 1022,8 hPa 0,0 l/m 2 min 0 min 813 W/m 9,7 km/h (2 Bft) 97,87 %
13.04.2020 14:54 13,2 C 18,3 C 13,9 C 51 % 1022,9 hPa 0,0 l/m 2 min 0 min 810 W/m 19,3 km/h (3 Bft) 97,67 %
13.04.2020 14:56 13,2 C 18,3 C 14,4 C 52 % 1023,0 hPa 0,0 l/m 2 min 0 min 817 W/m 19,3 km/h (3 Bft) 95,92 %
13.04.2020 14:58 13,3 C 18,9 C 14,4 C 52 % 1023,0 hPa 0,0 l/m 2 min 0 min 817 W/m 19,3 km/h (3 Bft) 100,00 %
13.04.2020 15:00 13,3 C 18,3 C 14,4 C 51 % 1023,0 hPa 0,0 l/m 2 min 0 min 805 W/m 16,1 km/h (3 Bft) 97,87 %
13.04.2020 15:02 13,4 C 17,8 C 14,4 C 51 % 1023,1 hPa 0,0 l/m 2 min 0 min 795 W/m 19,3 km/h (3 Bft) 95,35 %
13.04.2020 15:04 13,4 C 18,3 C 13,9 C 51 % 1023,2 hPa 0,0 l/m 2 min 0 min 792 W/m 16,1 km/h (3 Bft) 94,00 %
13.04.2020 15:06 13,4 C 18,3 C 13,9 C 51 % 1023,1 hPa 0,0 l/m 2 min 0 min 793 W/m 22,5 km/h (4 Bft) 95,74 %
13.04.2020 15:08 13,4 C 18,9 C 13,9 C 51 % 1023,2 hPa 0,0 l/m 2 min 0 min 783 W/m 6,4 km/h (2 Bft) 97,87 %
13.04.2020 15:10 13,4 C 17,8 C 13,9 C 48 % 1023,2 hPa 0,0 l/m 2 min 0 min 784 W/m 25,7 km/h (4 Bft) 97,87 %
13.04.2020 15:12 13,4 C 17,8 C 13,9 C 49 % 1023,2 hPa 0,0 l/m 2 min 0 min 790 W/m 19,3 km/h (3 Bft) 97,67 %
13.04.2020 15:14 13,3 C 17,2 C 13,9 C 48 % 1023,1 hPa 0,0 l/m 2 min 0 min 785 W/m 22,5 km/h (4 Bft) 92,00 %
13.04.2020 15:16 13,3 C 17,2 C 13,3 C 47 % 1023,1 hPa 0,0 l/m 2 min 0 min 776 W/m 19,3 km/h (3 Bft) 93,62 %
13.04.2020 15:18 13,2 C 17,2 C 13,3 C 48 % 1023,1 hPa 0,0 l/m 2 min 0 min 771 W/m 9,7 km/h (2 Bft) 95,74 %
13.04.2020 15:20 13,2 C 17,8 C 13,3 C 48 % 1023,2 hPa 0,0 l/m 2 min 0 min 770 W/m 22,5 km/h (4 Bft) 95,35 %
13.04.2020 15:22 13,2 C 17,8 C 13,9 C 49 % 1023,2 hPa 0,0 l/m 2 min 0 min 766 W/m 19,3 km/h (3 Bft) 96,00 %
13.04.2020 15:24 13,3 C 17,8 C 13,9 C 50 % 1023,2 hPa 0,0 l/m 2 min 0 min 763 W/m 19,3 km/h (3 Bft) 95,83 %
13.04.2020 15:26 13,3 C 17,8 C 13,9 C 49 % 1023,2 hPa 0,0 l/m 2 min 0 min 766 W/m 19,3 km/h (3 Bft) 95,74 %
13.04.2020 15:28 13,3 C 17,8 C 13,9 C 49 % 1023,2 hPa 0,0 l/m 2 min 0 min 769 W/m 19,3 km/h (3 Bft) 95,35 %
13.04.2020 15:30 13,3 C 18,3 C 13,9 C 49 % 1023,1 hPa 0,0 l/m 2 min 0 min 786 W/m 12,9 km/h (3 Bft) 96,00 %
13.04.2020 15:32 13,4 C 18,3 C 14,4 C 50 % 1023,1 hPa 0,0 l/m 2 min 0 min 818 W/m 12,9 km/h (3 Bft) 95,74 %
13.04.2020 15:34 13,4 C 17,2 C 14,4 C 49 % 1023,0 hPa 0,0 l/m 2 min 0 min 691 W/m 22,5 km/h (4 Bft) 95,74 %
13.04.2020 15:36 13,4 C 17,8 C 13,9 C 49 % 1023,0 hPa 0,0 l/m 2 min 0 min 579 W/m 16,1 km/h (3 Bft) 97,67 %
13.04.2020 15:38 13,5 C 17,8 C 13,9 C 50 % 1023,0 hPa 0,0 l/m 2 min 0 min 815 W/m 22,5 km/h (4 Bft) 96,00 %
13.04.2020 15:40 13,4 C 15,6 C 13,3 C 48 % 1023,0 hPa 0,0 l/m 2 min 0 min 802 W/m 19,3 km/h (3 Bft) 95,74 %
13.04.2020 15:42 13,4 C 17,2 C 13,9 C 49 % 1023,0 hPa 0,0 l/m 2 min 0 min 775 W/m 19,3 km/h (3 Bft) 95,74 %
13.04.2020 15:44 13,4 C 16,7 C 13,9 C 48 % 1022,9 hPa 0,0 l/m 2 min 0 min 777 W/m 22,5 km/h (4 Bft) 97,87 %
13.04.2020 15:46 13,3 C 16,7 C 13,3 C 48 % 1022,9 hPa 0,0 l/m 2 min 0 min 770 W/m 29,0 km/h (5 Bft) 95,35 %
13.04.2020 15:48 13,3 C 16,7 C 13,9 C 49 % 1023,0 hPa 0,0 l/m 2 min 0 min 741 W/m 19,3 km/h (3 Bft) 100,00 %
13.04.2020 15:50 13,3 C 17,2 C 13,9 C 49 % 1022,9 hPa 0,0 l/m 2 min 0 min 660 W/m 19,3 km/h (3 Bft) 100,00 %
13.04.2020 15:52 13,3 C 15,6 C 13,3 C 49 % 1023,0 hPa 0,0 l/m 2 min 0 min 612 W/m 22,5 km/h (4 Bft) 97,83 %
13.04.2020 15:54 13,2 C 15,6 C 12,8 C 49 % 1022,9 hPa 0,0 l/m 2 min 0 min 612 W/m 16,1 km/h (3 Bft) 100,00 %
13.04.2020 15:56 13,1 C 16,1 C 12,8 C 49 % 1022,9 hPa 0,0 l/m 2 min 0 min 684 W/m 41,8 km/h (6 Bft) 100,00 %
13.04.2020 15:58 13,1 C 16,1 C 13,3 C 48 % 1022,9 hPa 0,0 l/m 2 min 0 min 715 W/m 35,4 km/h (5 Bft) 100,00 %
13.04.2020 16:00 13,1 C 16,7 C 13,3 C 49 % 1023,0 hPa 0,0 l/m 2 min 0 min 708 W/m 25,7 km/h (4 Bft) 97,87 %
13.04.2020 16:02 13,1 C 17,2 C 13,3 C 48 % 1022,9 hPa 0,0 l/m 2 min 0 min 702 W/m 22,5 km/h (4 Bft) 100,00 %
13.04.2020 16:04 13,1 C 17,8 C 13,9 C 50 % 1022,9 hPa 0,0 l/m 2 min 0 min 693 W/m 12,9 km/h (3 Bft) 98,00 %
13.04.2020 16:06 13,1 C 16,7 C 13,3 C 49 % 1022,8 hPa 0,0 l/m 2 min 0 min 690 W/m 35,4 km/h (5 Bft) 100,00 %
13.04.2020 16:08 13,1 C 17,2 C 13,9 C 50 % 1022,9 hPa 0,0 l/m 2 min 0 min 674 W/m 16,1 km/h (3 Bft) 97,87 %
13.04.2020 16:10 13,1 C 16,7 C 13,3 C 48 % 1022,9 hPa 0,0 l/m 2 min 0 min 668 W/m 29,0 km/h (5 Bft) 97,87 %
13.04.2020 16:12 13,1 C 16,1 C 13,3 C 48 % 1022,9 hPa 0,0 l/m 2 min 0 min 670 W/m 35,4 km/h (5 Bft) 100,00 %
13.04.2020 16:14 13,1 C 16,7 C 13,9 C 49 % 1022,8 hPa 0,0 l/m 2 min 0 min 667 W/m 16,1 km/h (3 Bft) 97,67 %
13.04.2020 16:16 13,1 C 17,2 C 15,0 C 49 % 1022,8 hPa 0,0 l/m 2 min 0 min 663 W/m 22,5 km/h (4 Bft) 98,00 %
13.04.2020 16:18 13,1 C 16,7 C 14,4 C 47 % 1022,9 hPa 0,0 l/m 2 min 0 min 656 W/m 29,0 km/h (5 Bft) 100,00 %
13.04.2020 16:20 13,1 C 16,1 C 14,4 C 47 % 1022,8 hPa 0,0 l/m 2 min 0 min 652 W/m 29,0 km/h (5 Bft) 100,00 %
13.04.2020 16:22 13,1 C 17,2 C 15,0 C 49 % 1022,8 hPa 0,0 l/m 2 min 0 min 648 W/m 6,4 km/h (2 Bft) 100,00 %
13.04.2020 16:24 13,1 C 17,8 C 16,1 C 48 % 1022,7 hPa 0,0 l/m 2 min 0 min 646 W/m 12,9 km/h (3 Bft) 98,00 %
13.04.2020 16:26 13,2 C 17,8 C 17,2 C 48 % 1022,8 hPa 0,0 l/m 2 min 0 min 643 W/m 6,4 km/h (2 Bft) 100,00 %
13.04.2020 16:28 13,3 C 17,2 C 16,7 C 48 % 1022,7 hPa 0,0 l/m 2 min 0 min 639 W/m 16,1 km/h (3 Bft) 100,00 %
13.04.2020 16:30 13,3 C 17,2 C 15,6 C 47 % 1022,7 hPa 0,0 l/m 2 min 0 min 634 W/m 22,5 km/h (4 Bft) 100,00 %
13.04.2020 16:32 13,3 C 17,2 C 16,1 C 47 % 1022,7 hPa 0,0 l/m 2 min 0 min 629 W/m 29,0 km/h (5 Bft) 98,00 %
13.04.2020 16:34 13,4 C 17,8 C 16,1 C 48 % 1022,8 hPa 0,0 l/m 2 min 0 min 625 W/m 19,3 km/h (3 Bft) 100,00 %
13.04.2020 16:36 13,4 C 17,8 C 15,6 C 47 % 1022,7 hPa 0,0 l/m 2 min 0 min 620 W/m 19,3 km/h (3 Bft) 100,00 %
13.04.2020 16:38 13,4 C 16,7 C 14,4 C 46 % 1022,8 hPa 0,0 l/m 2 min 0 min 612 W/m 29,0 km/h (5 Bft) 100,00 %
13.04.2020 16:40 13,4 C 16,7 C 13,9 C 45 % 1022,8 hPa 0,0 l/m 2 min 0 min 606 W/m 32,2 km/h (5 Bft) 100,00 %
13.04.2020 16:42 13,3 C 16,1 C 13,9 C 46 % 1022,7 hPa 0,0 l/m 2 min 0 min 602 W/m 16,1 km/h (3 Bft) 97,67 %
13.04.2020 16:44 13,3 C 16,7 C 13,9 C 47 % 1022,7 hPa 0,0 l/m 2 min 0 min 597 W/m 29,0 km/h (5 Bft) 100,00 %
13.04.2020 16:46 13,4 C 17,2 C 14,4 C 47 % 1022,7 hPa 0,0 l/m 2 min 0 min 595 W/m 22,5 km/h (4 Bft) 97,92 %
13.04.2020 16:48 13,4 C 16,7 C 15,6 C 46 % 1022,7 hPa 0,0 l/m 2 min 0 min 587 W/m 19,3 km/h (3 Bft) 100,00 %
13.04.2020 16:50 13,4 C 16,7 C 16,7 C 47 % 1022,7 hPa 0,0 l/m 2 min 0 min 582 W/m 22,5 km/h (4 Bft) 97,67 %
13.04.2020 16:52 13,4 C 17,2 C 16,7 C 47 % 1022,7 hPa 0,0 l/m 2 min 0 min 577 W/m 29,0 km/h (5 Bft) 100,00 %
13.04.2020 16:54 13,4 C 17,2 C 17,2 C 47 % 1022,8 hPa 0,0 l/m 2 min 0 min 574 W/m 9,7 km/h (2 Bft) 100,00 %
13.04.2020 16:56 13,4 C 15,6 C 16,7 C 45 % 1022,8 hPa 0,0 l/m 2 min 0 min 565 W/m 41,8 km/h (6 Bft) 97,87 %
13.04.2020 16:58 13,3 C 16,1 C 16,7 C 47 % 1022,7 hPa 0,0 l/m 2 min 0 min 557 W/m 9,7 km/h (2 Bft) 100,00 %
13.04.2020 17:00 13,3 C 16,1 C 16,7 C 47 % 1022,7 hPa 0,0 l/m 2 min 0 min 553 W/m 19,3 km/h (3 Bft) 100,00 %
13.04.2020 17:02 13,2 C 16,1 C 16,1 C 47 % 1022,7 hPa 0,0 l/m 2 min 0 min 549 W/m 22,5 km/h (4 Bft) 100,00 %
13.04.2020 17:04 13,2 C 16,1 C 16,7 C 47 % 1022,7 hPa 0,0 l/m 2 min 0 min 542 W/m 19,3 km/h (3 Bft) 100,00 %
13.04.2020 17:06 13,1 C 16,1 C 17,8 C 47 % 1022,6 hPa 0,0 l/m 2 min 0 min 541 W/m 9,7 km/h (2 Bft) 97,67 %
13.04.2020 17:08 13,1 C 16,1 C 17,8 C 46 % 1022,7 hPa 0,0 l/m 2 min 0 min 536 W/m 19,3 km/h (3 Bft) 100,00 %
13.04.2020 17:10 13,1 C 16,1 C 17,8 C 46 % 1022,6 hPa 0,0 l/m 2 min 0 min 528 W/m 22,5 km/h (4 Bft) 100,00 %
13.04.2020 17:12 13,1 C 16,1 C 17,8 C 47 % 1022,7 hPa 0,0 l/m 2 min 0 min 523 W/m 19,3 km/h (3 Bft) 100,00 %
13.04.2020 17:14 13,1 C 15,6 C 16,7 C 45 % 1022,7 hPa 0,0 l/m 2 min 0 min 518 W/m 25,7 km/h (4 Bft) 97,83 %
13.04.2020 17:16 13,0 C 15,6 C 16,7 C 46 % 1022,8 hPa 0,0 l/m 2 min 0 min 509 W/m 16,1 km/h (3 Bft) 97,73 %
13.04.2020 17:18 12,9 C 15,6 C 17,2 C 46 % 1022,8 hPa 0,0 l/m 2 min 0 min 502 W/m 9,7 km/h (2 Bft) 100,00 %
13.04.2020 17:20 12,9 C 15,0 C 16,7 C 46 % 1022,7 hPa 0,0 l/m 2 min 0 min 495 W/m 12,9 km/h (3 Bft) 97,92 %
13.04.2020 17:22 12,8 C 15,6 C 17,2 C 46 % 1022,7 hPa 0,0 l/m 2 min 0 min 492 W/m 6,4 km/h (2 Bft) 97,87 %
13.04.2020 17:24 12,8 C 15,6 C 17,2 C 48 % 1022,7 hPa 0,0 l/m 2 min 0 min 487 W/m 12,9 km/h (3 Bft) 95,35 %
13.04.2020 17:26 12,8 C 15,6 C 16,7 C 48 % 1022,7 hPa 0,0 l/m 2 min 0 min 481 W/m 16,1 km/h (3 Bft) 100,00 %
13.04.2020 17:28 12,8 C 15,6 C 16,1 C 48 % 1022,7 hPa 0,0 l/m 2 min 0 min 473 W/m 22,5 km/h (4 Bft) 100,00 %
13.04.2020 17:30 12,8 C 15,0 C 14,4 C 47 % 1022,7 hPa 0,0 l/m 2 min 0 min 465 W/m 16,1 km/h (3 Bft) 97,87 %
13.04.2020 17:32 12,7 C 15,0 C 13,9 C 48 % 1022,6 hPa 0,0 l/m 2 min 0 min 459 W/m 9,7 km/h (2 Bft) 97,87 %
13.04.2020 17:34 12,7 C 15,0 C 13,3 C 48 % 1022,8 hPa 0,0 l/m 2 min 0 min 449 W/m 29,0 km/h (5 Bft) 95,12 %
13.04.2020 17:36 12,6 C 14,4 C 12,8 C 47 % 1022,8 hPa 0,0 l/m 2 min 0 min 447 W/m 22,5 km/h (4 Bft) 98,00 %
13.04.2020 17:38 12,5 C 14,4 C 11,7 C 47 % 1022,9 hPa 0,0 l/m 2 min 0 min 443 W/m 29,0 km/h (5 Bft) 95,74 %
13.04.2020 17:40 12,4 C 14,4 C 11,7 C 47 % 1022,8 hPa 0,0 l/m 2 min 0 min 438 W/m 19,3 km/h (3 Bft) 93,48 %
13.04.2020 17:42 12,4 C 14,4 C 11,1 C 49 % 1022,7 hPa 0,0 l/m 2 min 0 min 429 W/m 12,9 km/h (3 Bft) 92,00 %
13.04.2020 17:44 12,4 C 15,0 C 11,1 C 49 % 1022,8 hPa 0,0 l/m 2 min 0 min 426 W/m 12,9 km/h (3 Bft) 93,62 %
13.04.2020 17:46 12,4 C 15,0 C 11,1 C 48 % 1022,9 hPa 0,0 l/m 2 min 0 min 419 W/m 29,0 km/h (5 Bft) 95,12 %
13.04.2020 17:48 12,4 C 15,0 C 11,1 C 48 % 1022,7 hPa 0,0 l/m 2 min 0 min 412 W/m 22,5 km/h (4 Bft) 92,00 %
13.04.2020 17:50 12,3 C 14,4 C 10,6 C 47 % 1022,8 hPa 0,0 l/m 2 min 0 min 406 W/m 29,0 km/h (5 Bft) 93,88 %
13.04.2020 17:52 12,3 C 13,9 C 10,6 C 47 % 1022,8 hPa 0,0 l/m 2 min 0 min 401 W/m 32,2 km/h (5 Bft) 93,62 %
13.04.2020 17:54 12,2 C 14,4 C 10,6 C 48 % 1022,8 hPa 0,0 l/m 2 min 0 min 392 W/m 19,3 km/h (3 Bft) 92,68 %
13.04.2020 17:56 12,1 C 13,9 C 10,6 C 47 % 1022,8 hPa 0,0 l/m 2 min 0 min 387 W/m 19,3 km/h (3 Bft) 94,00 %
13.04.2020 17:58 12,1 C 13,9 C 10,6 C 48 % 1022,8 hPa 0,0 l/m 2 min 0 min 381 W/m 16,1 km/h (3 Bft) 92,00 %
13.04.2020 18:00 12,1 C 14,4 C 10,6 C 48 % 1022,8 hPa 0,0 l/m 2 min 0 min 378 W/m 9,7 km/h (2 Bft) 91,30 %
13.04.2020 18:02 12,1 C 13,9 C 10,0 C 47 % 1022,9 hPa 0,0 l/m 2 min 0 min 371 W/m 25,7 km/h (4 Bft) 92,86 %
13.04.2020 18:04 12,0 C 13,9 C 10,0 C 48 % 1022,9 hPa 0,0 l/m 2 min 0 min 363 W/m 19,3 km/h (3 Bft) 94,00 %
13.04.2020 18:08 11,9 C 13,3 C 10,0 C 48 % 1022,8 hPa 0,0 l/m 4 min 0 min 349 W/m 22,5 km/h (4 Bft) 91,67 %
13.04.2020 18:10 11,8 C 13,3 C 10,0 C 49 % 1022,8 hPa 0,0 l/m 2 min 0 min 341 W/m 16,1 km/h (3 Bft) 93,62 %
13.04.2020 18:12 11,7 C 13,3 C 10,0 C 49 % 1022,8 hPa 0,0 l/m 2 min 0 min 338 W/m 16,1 km/h (3 Bft) 92,86 %
13.04.2020 18:14 11,7 C 13,3 C 9,4 C 48 % 1022,9 hPa 0,0 l/m 2 min 0 min 326 W/m 22,5 km/h (4 Bft) 91,84 %
13.04.2020 18:16 11,7 C 13,3 C 10,0 C 49 % 1022,8 hPa 0,0 l/m 2 min 0 min 322 W/m 6,4 km/h (2 Bft) 93,88 %
13.04.2020 18:18 11,6 C 12,8 C 10,0 C 48 % 1022,9 hPa 0,0 l/m 2 min 0 min 318 W/m 19,3 km/h (3 Bft) 89,36 %
13.04.2020 18:20 11,5 C 12,8 C 9,4 C 48 % 1022,9 hPa 0,0 l/m 2 min 0 min 312 W/m 25,7 km/h (4 Bft) 92,86 %
13.04.2020 18:22 11,4 C 12,2 C 9,4 C 48 % 1022,9 hPa 0,0 l/m 2 min 0 min 297 W/m 22,5 km/h (4 Bft) 98,00 %
13.04.2020 18:24 11,3 C 12,2 C 9,4 C 50 % 1022,8 hPa 0,0 l/m 2 min 0 min 292 W/m 6,4 km/h (2 Bft) 95,83 %
13.04.2020 18:26 11,2 C 11,1 C 9,4 C 49 % 1022,8 hPa 0,0 l/m 2 min 0 min 288 W/m 12,9 km/h (3 Bft) 97,87 %
13.04.2020 18:28 11,2 C 10,6 C 9,4 C 51 % 1022,9 hPa 0,0 l/m 2 min 0 min 278 W/m 16,1 km/h (3 Bft) 97,62 %
13.04.2020 18:30 11,1 C 10,0 C 9,4 C 50 % 1022,8 hPa 0,0 l/m 2 min 0 min 164 W/m 22,5 km/h (4 Bft) 98,00 %
13.04.2020 18:32 10,9 C 10,0 C 9,4 C 50 % 1022,9 hPa 0,0 l/m 0 min 0 min 77 W/m 9,7 km/h (2 Bft) 95,92 %
13.04.2020 18:34 10,8 C 9,4 C 9,4 C 51 % 1022,9 hPa 0,0 l/m 0 min 0 min 71 W/m 12,9 km/h (3 Bft) 97,87 %
13.04.2020 18:36 10,7 C 9,4 C 9,4 C 50 % 1022,9 hPa 0,0 l/m 0 min 0 min 68 W/m 19,3 km/h (3 Bft) 97,62 %
13.04.2020 18:38 10,6 C 9,4 C 9,4 C 51 % 1022,9 hPa 0,0 l/m 0 min 0 min 64 W/m 29,0 km/h (5 Bft) 97,83 %
13.04.2020 18:40 10,5 C 9,4 C 9,4 C 51 % 1023,0 hPa 0,0 l/m 0 min 0 min 62 W/m 19,3 km/h (3 Bft) 100,00 %
13.04.2020 18:42 10,4 C 9,4 C 8,9 C 51 % 1023,0 hPa 0,0 l/m 0 min 0 min 62 W/m 9,7 km/h (2 Bft) 100,00 %
13.04.2020 18:44 10,3 C 9,4 C 8,9 C 51 % 1022,9 hPa 0,0 l/m 0 min 0 min 60 W/m 12,9 km/h (3 Bft) 97,96 %
13.04.2020 18:46 10,3 C 9,4 C 8,9 C 51 % 1023,0 hPa 0,0 l/m 0 min 0 min 59 W/m 12,9 km/h (3 Bft) 100,00 %
13.04.2020 18:48 10,2 C 9,4 C 8,9 C 51 % 1023,0 hPa 0,0 l/m 0 min 0 min 57 W/m 12,9 km/h (3 Bft) 100,00 %
13.04.2020 18:50 10,1 C 9,4 C 8,9 C 52 % 1023,1 hPa 0,0 l/m 0 min 0 min 56 W/m 19,3 km/h (3 Bft) 100,00 %
13.04.2020 18:52 10,1 C 8,9 C 8,9 C 51 % 1023,0 hPa 0,0 l/m 0 min 0 min 54 W/m 22,5 km/h (4 Bft) 100,00 %
13.04.2020 18:54 9,9 C 8,9 C 8,9 C 51 % 1022,9 hPa 0,0 l/m 0 min 0 min 54 W/m 12,9 km/h (3 Bft) 100,00 %
13.04.2020 18:56 9,9 C 8,9 C 8,9 C 53 % 1022,9 hPa 0,0 l/m 0 min 0 min 52 W/m 32,2 km/h (5 Bft) 100,00 %
13.04.2020 18:58 9,8 C 8,9 C 8,3 C 51 % 1022,9 hPa 0,0 l/m 0 min 0 min 51 W/m 32,2 km/h (5 Bft) 98,00 %
13.04.2020 19:00 9,8 C 8,9 C 8,3 C 51 % 1022,9 hPa 0,0 l/m 0 min 0 min 49 W/m 12,9 km/h (3 Bft) 100,00 %
13.04.2020 19:02 9,7 C 8,9 C 8,3 C 52 % 1022,9 hPa 0,0 l/m 0 min 0 min 49 W/m 9,7 km/h (2 Bft) 100,00 %
13.04.2020 19:04 9,7 C 8,9 C 8,3 C 51 % 1023,0 hPa 0,0 l/m 0 min 0 min 49 W/m 25,7 km/h (4 Bft) 100,00 %
13.04.2020 19:06 9,6 C 8,9 C 8,3 C 51 % 1022,9 hPa 0,0 l/m 0 min 0 min 47 W/m 9,7 km/h (2 Bft) 98,00 %
13.04.2020 19:08 9,6 C 8,9 C 8,3 C 52 % 1022,9 hPa 0,0 l/m 0 min 0 min 47 W/m 9,7 km/h (2 Bft) 97,87 %
13.04.2020 19:10 9,6 C 8,3 C 8,3 C 52 % 1022,9 hPa 0,0 l/m 0 min 0 min 47 W/m 12,9 km/h (3 Bft) 100,00 %
13.04.2020 19:12 9,5 C 8,3 C 8,3 C 52 % 1022,9 hPa 0,0 l/m 0 min 0 min 46 W/m 12,9 km/h (3 Bft) 100,00 %
13.04.2020 19:14 9,4 C 8,3 C 8,3 C 52 % 1023,0 hPa 0,0 l/m 0 min 0 min 46 W/m 19,3 km/h (3 Bft) 97,67 %
13.04.2020 19:16 9,4 C 8,3 C 8,3 C 51 % 1023,0 hPa 0,0 l/m 0 min 0 min 45 W/m 12,9 km/h (3 Bft) 100,00 %
13.04.2020 19:18 9,3 C 8,3 C 8,3 C 52 % 1023,0 hPa 0,0 l/m 0 min 0 min 44 W/m 9,7 km/h (2 Bft) 100,00 %
13.04.2020 19:20 9,3 C 8,3 C 8,3 C 52 % 1023,0 hPa 0,0 l/m 0 min 0 min 43 W/m 12,9 km/h (3 Bft) 100,00 %
13.04.2020 19:22 9,3 C 8,3 C 7,8 C 52 % 1023,0 hPa 0,0 l/m 0 min 0 min 42 W/m 6,4 km/h (2 Bft) 97,62 %
13.04.2020 19:24 9,2 C 8,3 C 7,8 C 52 % 1022,9 hPa 0,0 l/m 0 min 0 min 40 W/m 9,7 km/h (2 Bft) 100,00 %
13.04.2020 19:26 9,2 C 8,3 C 7,8 C 52 % 1022,9 hPa 0,0 l/m 0 min 0 min 39 W/m 12,9 km/h (3 Bft) 100,00 %
13.04.2020 19:28 9,2 C 8,3 C 7,8 C 53 % 1023,0 hPa 0,0 l/m 0 min 0 min 39 W/m 9,7 km/h (2 Bft) 100,00 %
13.04.2020 19:30 9,1 C 7,8 C 7,8 C 53 % 1023,0 hPa 0,0 l/m 0 min 0 min 37 W/m 19,3 km/h (3 Bft) 100,00 %
13.04.2020 19:32 9,1 C 7,8 C 7,8 C 52 % 1023,1 hPa 0,0 l/m 0 min 0 min 37 W/m 3,2 km/h (1 Bft) 100,00 %
13.04.2020 19:34 9,0 C 7,8 C 7,8 C 53 % 1023,1 hPa 0,0 l/m 0 min 0 min 35 W/m 12,9 km/h (3 Bft) 100,00 %
13.04.2020 19:36 8,9 C 7,8 C 7,8 C 52 % 1023,1 hPa 0,0 l/m 0 min 0 min 35 W/m 16,1 km/h (3 Bft) 100,00 %
13.04.2020 19:38 8,9 C 7,8 C 7,8 C 52 % 1023,1 hPa 0,0 l/m 0 min 0 min 34 W/m 16,1 km/h (3 Bft) 100,00 %
13.04.2020 19:40 8,9 C 7,8 C 7,8 C 52 % 1023,1 hPa 0,0 l/m 0 min 0 min 33 W/m 22,5 km/h (4 Bft) 100,00 %
13.04.2020 19:42 8,8 C 7,8 C 7,8 C 52 % 1023,0 hPa 0,0 l/m 0 min 0 min 32 W/m 22,5 km/h (4 Bft) 98,00 %
13.04.2020 19:44 8,8 C 7,8 C 7,8 C 53 % 1023,1 hPa 0,0 l/m 0 min 0 min 30 W/m 19,3 km/h (3 Bft) 97,92 %
13.04.2020 19:46 8,8 C 7,8 C 7,2 C 54 % 1023,1 hPa 0,0 l/m 0 min 0 min 28 W/m 9,7 km/h (2 Bft) 100,00 %
13.04.2020 19:48 8,7 C 7,8 C 7,2 C 53 % 1023,2 hPa 0,0 l/m 0 min 0 min 27 W/m 22,5 km/h (4 Bft) 97,62 %
13.04.2020 19:50 8,7 C 7,8 C 7,2 C 53 % 1023,3 hPa 0,0 l/m 0 min 0 min 26 W/m 32,2 km/h (5 Bft) 96,00 %
13.04.2020 19:52 8,7 C 7,8 C 7,2 C 53 % 1023,2 hPa 0,0 l/m 0 min 0 min 25 W/m 12,9 km/h (3 Bft) 97,96 %
13.04.2020 19:54 8,6 C 7,2 C 7,2 C 53 % 1023,2 hPa 0,0 l/m 0 min 0 min 25 W/m 3,2 km/h (1 Bft) 93,62 %
13.04.2020 19:56 8,6 C 7,2 C 7,2 C 53 % 1023,3 hPa 0,0 l/m 0 min 0 min 23 W/m 12,9 km/h (3 Bft) 100,00 %
13.04.2020 19:58 8,6 C 7,2 C 7,2 C 53 % 1023,3 hPa 0,0 l/m 0 min 0 min 22 W/m 19,3 km/h (3 Bft) 94,00 %
13.04.2020 20:00 8,5 C 7,2 C 7,2 C 54 % 1023,2 hPa 0,0 l/m 0 min 0 min 21 W/m 9,7 km/h (2 Bft) 97,92 %
13.04.2020 20:02 8,5 C 7,2 C 7,2 C 54 % 1023,3 hPa 0,0 l/m 0 min 0 min 19 W/m 12,9 km/h (3 Bft) 97,87 %
13.04.2020 20:04 8,4 C 7,2 C 7,2 C 54 % 1023,2 hPa 0,0 l/m 0 min 0 min 19 W/m 6,4 km/h (2 Bft) 97,62 %
13.04.2020 20:06 8,4 C 7,2 C 7,2 C 54 % 1023,2 hPa 0,0 l/m 0 min 0 min 18 W/m 3,2 km/h (1 Bft) 97,92 %
13.04.2020 20:08 8,3 C 7,2 C 7,2 C 55 % 1023,2 hPa 0,0 l/m 0 min 0 min 16 W/m 0,0 km/h (0 Bft) 97,83 %
13.04.2020 20:10 8,3 C 7,2 C 6,7 C 54 % 1023,2 hPa 0,0 l/m 0 min 0 min 15 W/m 0,0 km/h (0 Bft) 97,87 %
13.04.2020 20:12 8,3 C 6,7 C 6,7 C 55 % 1023,2 hPa 0,0 l/m 0 min 0 min 14 W/m 0,0 km/h (0 Bft) 98,18 %
13.04.2020 20:14 8,3 C 6,7 C 6,7 C 55 % 1023,3 hPa 0,0 l/m 0 min 0 min 13 W/m 0,0 km/h (0 Bft) 97,87 %
13.04.2020 20:16 8,2 C 6,7 C 6,7 C 55 % 1023,3 hPa 0,0 l/m 0 min 0 min 12 W/m 9,7 km/h (2 Bft) 97,87 %
13.04.2020 20:18 8,2 C 6,7 C 6,7 C 56 % 1023,4 hPa 0,0 l/m 0 min 0 min 11 W/m 16,1 km/h (3 Bft) 100,00 %
13.04.2020 20:20 8,1 C 6,7 C 6,7 C 56 % 1023,4 hPa 0,0 l/m 0 min 0 min 9 W/m 12,9 km/h (3 Bft) 100,00 %
13.04.2020 20:22 8,1 C 6,7 C 6,7 C 56 % 1023,4 hPa 0,0 l/m 0 min 0 min 7 W/m 12,9 km/h (3 Bft) 70,21 %
13.04.2020 20:24 8,0 C 6,7 C 6,7 C 56 % 1023,5 hPa 0,0 l/m 0 min 0 min 7 W/m 0,0 km/h (0 Bft) 86,36 %
13.04.2020 20:26 7,9 C 6,7 C 6,7 C 57 % 1023,4 hPa 0,0 l/m 0 min 0 min 5 W/m 0,0 km/h (0 Bft) 100,00 %
13.04.2020 20:28 7,9 C 6,7 C 6,7 C 56 % 1023,5 hPa 0,0 l/m 0 min 0 min 5 W/m 25,7 km/h (4 Bft) 100,00 %
13.04.2020 20:30 7,9 C 6,7 C 6,7 C 56 % 1023,6 hPa 0,0 l/m 0 min 0 min 4 W/m 9,7 km/h (2 Bft) 100,00 %
13.04.2020 20:32 7,8 C 6,7 C 6,1 C 56 % 1023,7 hPa 0,0 l/m 0 min 0 min 0 W/m 3,2 km/h (1 Bft) 97,83 %
13.04.2020 20:34 7,8 C 6,1 C 6,1 C 56 % 1023,7 hPa 0,0 l/m 0 min 0 min 0 W/m 16,1 km/h (3 Bft) 97,87 %
13.04.2020 20:36 7,7 C 6,7 C 6,1 C 56 % 1023,7 hPa 0,0 l/m 0 min 0 min 0 W/m 25,7 km/h (4 Bft) 100,00 %
13.04.2020 20:38 7,7 C 6,1 C 6,1 C 56 % 1023,7 hPa 0,0 l/m 0 min 0 min 0 W/m 3,2 km/h (1 Bft) 100,00 %
13.04.2020 20:40 7,7 C 6,1 C 6,1 C 57 % 1023,8 hPa 0,0 l/m 0 min 0 min 0 W/m 9,7 km/h (2 Bft) 100,00 %
13.04.2020 20:42 7,6 C 6,1 C 6,1 C 57 % 1023,8 hPa 0,0 l/m 0 min 0 min 0 W/m 19,3 km/h (3 Bft) 100,00 %
13.04.2020 20:44 7,6 C 6,1 C 6,1 C 57 % 1023,8 hPa 0,0 l/m 0 min 0 min 0 W/m 19,3 km/h (3 Bft) 100,00 %
13.04.2020 20:46 7,5 C 6,1 C 6,1 C 57 % 1023,8 hPa 0,0 l/m 0 min 0 min 0 W/m 0,0 km/h (0 Bft) 97,87 %
13.04.2020 20:48 7,5 C 6,1 C 6,1 C 57 % 1023,9 hPa 0,0 l/m 0 min 0 min 0 W/m 12,9 km/h (3 Bft) 97,87 %
13.04.2020 20:50 7,4 C 6,1 C 6,1 C 58 % 1023,9 hPa 0,0 l/m 0 min 0 min 0 W/m 12,9 km/h (3 Bft) 97,87 %
13.04.2020 20:52 7,4 C 6,1 C 6,1 C 59 % 1023,9 hPa 0,0 l/m 0 min 0 min 0 W/m 0,0 km/h (0 Bft) 95,74 %
13.04.2020 20:54 7,4 C 6,1 C 5,6 C 58 % 1023,9 hPa 0,0 l/m 0 min 0 min 0 W/m 3,2 km/h (1 Bft) 97,87 %
13.04.2020 20:56 7,3 C 6,1 C 5,6 C 59 % 1023,9 hPa 0,0 l/m 0 min 0 min 0 W/m 19,3 km/h (3 Bft) 95,65 %
13.04.2020 20:58 7,3 C 6,1 C 5,6 C 58 % 1024,0 hPa 0,0 l/m 0 min 0 min 0 W/m 12,9 km/h (3 Bft) 97,87 %
13.04.2020 21:00 7,2 C 6,1 C 5,6 C 59 % 1024,0 hPa 0,0 l/m 0 min 0 min 0 W/m 12,9 km/h (3 Bft) 95,74 %
13.04.2020 21:02 7,2 C 6,1 C 5,6 C 59 % 1024,0 hPa 0,0 l/m 0 min 0 min 0 W/m 0,0 km/h (0 Bft) 95,74 %
13.04.2020 21:04 7,2 C 6,1 C 5,6 C 59 % 1024,0 hPa 0,0 l/m 0 min 0 min 0 W/m 0,0 km/h (0 Bft) 95,74 %
13.04.2020 21:06 7,1 C 5,6 C 5,6 C 58 % 1024,1 hPa 0,0 l/m 0 min 0 min 0 W/m 19,3 km/h (3 Bft) 93,62 %
13.04.2020 21:08 7,1 C 5,6 C 5,6 C 58 % 1024,1 hPa 0,0 l/m 0 min 0 min 0 W/m 9,7 km/h (2 Bft) 93,48 %
13.04.2020 21:10 7,1 C 5,6 C 5,6 C 58 % 1024,2 hPa 0,0 l/m 0 min 0 min 0 W/m 19,3 km/h (3 Bft) 95,74 %
13.04.2020 21:12 7,0 C 5,6 C 5,6 C 58 % 1024,3 hPa 0,0 l/m 0 min 0 min 0 W/m 0,0 km/h (0 Bft) 93,62 %
13.04.2020 21:14 7,0 C 5,6 C 5,6 C 58 % 1024,2 hPa 0,0 l/m 0 min 0 min 0 W/m 12,9 km/h (3 Bft) 95,74 %
13.04.2020 21:16 6,9 C 5,6 C 5,6 C 59 % 1024,3 hPa 0,0 l/m 0 min 0 min 0 W/m 9,7 km/h (2 Bft) 95,74 %
13.04.2020 21:18 6,9 C 5,6 C 5,6 C 59 % 1024,3 hPa 0,0 l/m 0 min 0 min 0 W/m 19,3 km/h (3 Bft) 93,48 %
13.04.2020 21:20 6,9 C 5,6 C 5,6 C 59 % 1024,3 hPa 0,0 l/m 0 min 0 min 0 W/m 16,1 km/h (3 Bft) 95,74 %
13.04.2020 21:22 6,8 C 5,6 C 5,6 C 59 % 1024,3 hPa 0,0 l/m 0 min 0 min 0 W/m 29,0 km/h (5 Bft) 95,74 %
13.04.2020 21:24 6,8 C 5,6 C 5,6 C 59 % 1024,4 hPa 0,0 l/m 0 min 0 min 0 W/m 16,1 km/h (3 Bft) 93,62 %
13.04.2020 21:26 6,8 C 5,6 C 5,6 C 59 % 1024,4 hPa 0,0 l/m 0 min 0 min 0 W/m 3,2 km/h (1 Bft) 91,49 %
13.04.2020 21:28 6,7 C 5,6 C 5,6 C 59 % 1024,5 hPa 0,0 l/m 0 min 0 min 0 W/m 16,1 km/h (3 Bft) 95,74 %
13.04.2020 21:30 6,7 C 5,6 C 5,6 C 60 % 1024,5 hPa 0,0 l/m 0 min 0 min 0 W/m 0,0 km/h (0 Bft) 95,65 %
13.04.2020 21:32 6,7 C 5,6 C 5,6 C 60 % 1024,6 hPa 0,0 l/m 0 min 0 min 0 W/m 16,1 km/h (3 Bft) 93,62 %
13.04.2020 21:34 6,7 C 5,6 C 5,6 C 60 % 1024,6 hPa 0,0 l/m 0 min 0 min 0 W/m 16,1 km/h (3 Bft) 93,62 %
13.04.2020 21:36 6,6 C 5,6 C 5,6 C 60 % 1024,6 hPa 0,0 l/m 0 min 0 min 0 W/m 9,7 km/h (2 Bft) 91,49 %
13.04.2020 21:38 6,6 C 5,6 C 5,0 C 60 % 1024,7 hPa 0,0 l/m 0 min 0 min 0 W/m 0,0 km/h (0 Bft) 95,74 %
13.04.2020 21:40 6,6 C 5,6 C 5,0 C 61 % 1024,7 hPa 0,0 l/m 0 min 0 min 0 W/m 9,7 km/h (2 Bft) 93,62 %
13.04.2020 21:42 6,6 C 5,0 C 5,0 C 60 % 1024,7 hPa 0,0 l/m 0 min 0 min 0 W/m 3,2 km/h (1 Bft) 95,65 %
13.04.2020 21:44 6,5 C 5,0 C 5,0 C 60 % 1024,7 hPa 0,0 l/m 0 min 0 min 0 W/m 0,0 km/h (0 Bft) 95,74 %
13.04.2020 21:46 6,5 C 5,0 C 5,0 C 61 % 1024,7 hPa 0,0 l/m 0 min 0 min 0 W/m 16,1 km/h (3 Bft) 91,49 %
13.04.2020 21:48 6,4 C 5,0 C 5,0 C 61 % 1024,8 hPa 0,0 l/m 0 min 0 min 0 W/m 6,4 km/h (2 Bft) 95,74 %
13.04.2020 21:50 6,4 C 5,0 C 5,0 C 61 % 1024,8 hPa 0,0 l/m 0 min 0 min 0 W/m 3,2 km/h (1 Bft) 95,74 %
13.04.2020 21:52 6,4 C 5,0 C 4,4 C 61 % 1024,8 hPa 0,0 l/m 0 min 0 min 0 W/m 0,0 km/h (0 Bft) 95,74 %
13.04.2020 21:54 6,3 C 5,0 C 4,4 C 61 % 1024,8 hPa 0,0 l/m 0 min 0 min 0 W/m 0,0 km/h (0 Bft) 93,48 %
13.04.2020 21:56 6,3 C 5,0 C 4,4 C 61 % 1024,8 hPa 0,0 l/m 0 min 0 min 0 W/m 0,0 km/h (0 Bft) 89,36 %
13.04.2020 21:58 6,3 C 4,4 C 4,4 C 62 % 1024,8 hPa 0,0 l/m 0 min 0 min 0 W/m 0,0 km/h (0 Bft) 95,74 %
13.04.2020 22:00 6,2 C 4,4 C 4,4 C 62 % 1024,8 hPa 0,0 l/m 0 min 0 min 0 W/m 0,0 km/h (0 Bft) 89,36 %
13.04.2020 22:02 6,2 C 4,4 C 4,4 C 62 % 1024,8 hPa 0,0 l/m 0 min 0 min 0 W/m 0,0 km/h (0 Bft) 91,49 %
13.04.2020 22:04 6,2 C 4,4 C 4,4 C 62 % 1024,8 hPa 0,0 l/m 0 min 0 min 0 W/m 0,0 km/h (0 Bft) 95,74 %
13.04.2020 22:06 6,1 C 4,4 C 4,4 C 62 % 1024,8 hPa 0,0 l/m 0 min 0 min 0 W/m 0,0 km/h (0 Bft) 95,65 %
13.04.2020 22:08 6,1 C 4,4 C 4,4 C 62 % 1024,9 hPa 0,0 l/m 0 min 0 min 0 W/m 0,0 km/h (0 Bft) 93,62 %
13.04.2020 22:10 6,1 C 4,4 C 4,4 C 62 % 1024,9 hPa 0,0 l/m 0 min 0 min 0 W/m 0,0 km/h (0 Bft) 95,74 %
13.04.2020 22:12 6,0 C 4,4 C 4,4 C 63 % 1024,9 hPa 0,0 l/m 0 min 0 min 0 W/m 9,7 km/h (2 Bft) 97,87 %
13.04.2020 22:14 5,9 C 4,4 C 4,4 C 63 % 1025,0 hPa 0,0 l/m 0 min 0 min 0 W/m 6,4 km/h (2 Bft) 95,74 %
13.04.2020 22:16 5,9 C 4,4 C 4,4 C 63 % 1025,0 hPa 0,0 l/m 0 min 0 min 0 W/m 3,2 km/h (1 Bft) 95,65 %
13.04.2020 22:18 5,8 C 4,4 C 4,4 C 63 % 1025,1 hPa 0,0 l/m 0 min 0 min 0 W/m 0,0 km/h (0 Bft) 93,62 %
13.04.2020 22:20 5,8 C 4,4 C 4,4 C 63 % 1025,1 hPa 0,0 l/m 0 min 0 min 0 W/m 9,7 km/h (2 Bft) 95,74 %
13.04.2020 22:22 5,8 C 4,4 C 4,4 C 63 % 1025,1 hPa 0,0 l/m 0 min 0 min 0 W/m 9,7 km/h (2 Bft) 97,87 %
13.04.2020 22:24 5,7 C 4,4 C 4,4 C 64 % 1025,1 hPa 0,0 l/m 0 min 0 min 0 W/m 12,9 km/h (3 Bft) 100,00 %
13.04.2020 22:26 5,7 C 4,4 C 4,4 C 64 % 1025,1 hPa 0,0 l/m 0 min 0 min 0 W/m 16,1 km/h (3 Bft) 100,00 %
13.04.2020 22:28 5,7 C 4,4 C 3,9 C 64 % 1025,2 hPa 0,0 l/m 0 min 0 min 0 W/m 0,0 km/h (0 Bft) 100,00 %
13.04.2020 22:30 5,6 C 4,4 C 4,4 C 64 % 1025,2 hPa 0,0 l/m 0 min 0 min 0 W/m 0,0 km/h (0 Bft) 97,87 %
13.04.2020 22:32 5,6 C 4,4 C 4,4 C 64 % 1025,2 hPa 0,0 l/m 0 min 0 min 0 W/m 22,5 km/h (4 Bft) 100,00 %
13.04.2020 22:34 5,6 C 4,4 C 4,4 C 64 % 1025,3 hPa 0,0 l/m 0 min 0 min 0 W/m 19,3 km/h (3 Bft) 95,74 %
13.04.2020 22:36 5,6 C 4,4 C 4,4 C 64 % 1025,3 hPa 0,0 l/m 0 min 0 min 0 W/m 3,2 km/h (1 Bft) 100,00 %
13.04.2020 22:38 5,5 C 4,4 C 4,4 C 63 % 1025,3 hPa 0,0 l/m 0 min 0 min 0 W/m 16,1 km/h (3 Bft) 97,87 %
13.04.2020 22:40 5,5 C 4,4 C 4,4 C 64 % 1025,3 hPa 0,0 l/m 0 min 0 min 0 W/m 6,4 km/h (2 Bft) 95,65 %
13.04.2020 22:42 5,4 C 4,4 C 3,9 C 64 % 1025,3 hPa 0,0 l/m 0 min 0 min 0 W/m 3,2 km/h (1 Bft) 100,00 %
13.04.2020 22:44 5,4 C 4,4 C 4,4 C 63 % 1025,3 hPa 0,0 l/m 0 min 0 min 0 W/m 22,5 km/h (4 Bft) 95,74 %
13.04.2020 22:46 5,4 C 4,4 C 3,9 C 63 % 1025,3 hPa 0,0 l/m 0 min 0 min 0 W/m 9,7 km/h (2 Bft) 97,87 %
13.04.2020 22:48 5,4 C 4,4 C 3,9 C 64 % 1025,3 hPa 0,0 l/m 0 min 0 min 0 W/m 0,0 km/h (0 Bft) 97,87 %
13.04.2020 22:50 5,3 C 4,4 C 3,9 C 64 % 1025,3 hPa 0,0 l/m 0 min 0 min 0 W/m 12,9 km/h (3 Bft) 100,00 %
13.04.2020 22:52 5,3 C 4,4 C 3,9 C 64 % 1025,3 hPa 0,0 l/m 0 min 0 min 0 W/m 16,1 km/h (3 Bft) 97,83 %
13.04.2020 22:54 5,3 C 3,9 C 3,9 C 64 % 1025,3 hPa 0,0 l/m 0 min 0 min 0 W/m 6,4 km/h (2 Bft) 95,74 %
13.04.2020 22:56 5,3 C 3,9 C 3,9 C 64 % 1025,4 hPa 0,0 l/m 0 min 0 min 0 W/m 0,0 km/h (0 Bft) 95,74 %
13.04.2020 22:58 5,2 C 3,9 C 3,9 C 64 % 1025,4 hPa 0,0 l/m 0 min 0 min 0 W/m 0,0 km/h (0 Bft) 97,87 %
13.04.2020 23:00 5,2 C 3,9 C 3,9 C 65 % 1025,5 hPa 0,0 l/m 0 min 0 min 0 W/m 0,0 km/h (0 Bft) 95,74 %
13.04.2020 23:02 5,2 C 3,9 C 3,9 C 65 % 1025,5 hPa 0,0 l/m 0 min 0 min 0 W/m 0,0 km/h (0 Bft) 100,00 %
13.04.2020 23:04 5,2 C 3,9 C 3,9 C 65 % 1025,7 hPa 0,0 l/m 0 min 0 min 0 W/m 3,2 km/h (1 Bft) 97,87 %
13.04.2020 23:06 5,1 C 3,9 C 3,9 C 65 % 1025,6 hPa 0,0 l/m 0 min 0 min 0 W/m 16,1 km/h (3 Bft) 97,87 %
13.04.2020 23:08 5,1 C 3,9 C 3,9 C 65 % 1025,7 hPa 0,0 l/m 0 min 0 min 0 W/m 16,1 km/h (3 Bft) 93,62 %
13.04.2020 23:10 5,1 C 3,9 C 3,9 C 65 % 1025,7 hPa 0,0 l/m 0 min 0 min 0 W/m 16,1 km/h (3 Bft) 97,87 %
13.04.2020 23:12 5,0 C 3,9 C 3,9 C 65 % 1025,7 hPa 0,0 l/m 0 min 0 min 0 W/m 16,1 km/h (3 Bft) 100,00 %
13.04.2020 23:14 5,0 C 3,9 C 3,9 C 65 % 1025,7 hPa 0,0 l/m 0 min 0 min 0 W/m 19,3 km/h (3 Bft) 100,00 %
13.04.2020 23:16 4,9 C 3,9 C 3,9 C 65 % 1025,7 hPa 0,0 l/m 0 min 0 min 0 W/m 0,0 km/h (0 Bft) 100,00 %
13.04.2020 23:18 4,9 C 3,9 C 3,9 C 65 % 1025,7 hPa 0,0 l/m 0 min 0 min 0 W/m 12,9 km/h (3 Bft) 100,00 %
13.04.2020 23:20 4,9 C 3,9 C 3,9 C 65 % 1025,6 hPa 0,0 l/m 0 min 0 min 0 W/m 16,1 km/h (3 Bft) 97,87 %
13.04.2020 23:22 4,9 C 3,9 C 3,9 C 65 % 1025,6 hPa 0,0 l/m 0 min 0 min 0 W/m 6,4 km/h (2 Bft) 100,00 %
13.04.2020 23:24 4,9 C 3,9 C 3,3 C 66 % 1025,7 hPa 0,0 l/m 0 min 0 min 0 W/m 6,4 km/h (2 Bft) 95,74 %
13.04.2020 23:26 4,8 C 3,3 C 3,3 C 66 % 1025,8 hPa 0,0 l/m 0 min 0 min 0 W/m 0,0 km/h (0 Bft) 100,00 %
13.04.2020 23:28 4,8 C 3,3 C 3,3 C 66 % 1025,8 hPa 0,0 l/m 0 min 0 min 0 W/m 6,4 km/h (2 Bft) 95,74 %
13.04.2020 23:30 4,8 C 3,3 C 3,3 C 66 % 1025,8 hPa 0,0 l/m 0 min 0 min 0 W/m 3,2 km/h (1 Bft) 97,87 %
13.04.2020 23:32 4,8 C 3,3 C 3,3 C 66 % 1025,8 hPa 0,0 l/m 0 min 0 min 0 W/m 0,0 km/h (0 Bft) 97,87 %
13.04.2020 23:34 4,7 C 3,3 C 3,3 C 66 % 1025,9 hPa 0,0 l/m 0 min 0 min 0 W/m 0,0 km/h (0 Bft) 97,87 %
13.04.2020 23:36 4,7 C 3,3 C 3,3 C 66 % 1025,9 hPa 0,0 l/m 0 min 0 min 0 W/m 9,7 km/h (2 Bft) 95,74 %
13.04.2020 23:38 4,7 C 3,3 C 2,8 C 66 % 1025,9 hPa 0,0 l/m 0 min 0 min 0 W/m 6,4 km/h (2 Bft) 95,65 %
13.04.2020 23:40 4,7 C 3,3 C 3,3 C 67 % 1025,9 hPa 0,0 l/m 0 min 0 min 0 W/m 12,9 km/h (3 Bft) 97,87 %
13.04.2020 23:42 4,6 C 3,3 C 2,8 C 67 % 1025,9 hPa 0,0 l/m 0 min 0 min 0 W/m 0,0 km/h (0 Bft) 95,74 %
13.04.2020 23:44 4,6 C 2,8 C 2,8 C 67 % 1025,9 hPa 0,0 l/m 0 min 0 min 0 W/m 3,2 km/h (1 Bft) 97,87 %
13.04.2020 23:46 4,5 C 2,8 C 2,8 C 67 % 1025,9 hPa 0,0 l/m 0 min 0 min 0 W/m 0,0 km/h (0 Bft) 97,87 %
13.04.2020 23:48 4,5 C 3,3 C 2,8 C 67 % 1025,9 hPa 0,0 l/m 0 min 0 min 0 W/m 16,1 km/h (3 Bft) 97,87 %
13.04.2020 23:50 4,4 C 3,3 C 2,8 C 67 % 1026,0 hPa 0,0 l/m 0 min 0 min 0 W/m 0,0 km/h (0 Bft) 97,83 %
13.04.2020 23:52 4,4 C 3,3 C 2,8 C 68 % 1026,0 hPa 0,0 l/m 0 min 0 min 0 W/m 0,0 km/h (0 Bft) 95,74 %
13.04.2020 23:54 4,4 C 2,8 C 2,8 C 68 % 1026,0 hPa 0,0 l/m 0 min 0 min 0 W/m 0,0 km/h (0 Bft) 97,87 %
13.04.2020 23:56 4,3 C 2,8 C 2,8 C 68 % 1025,9 hPa 0,0 l/m 0 min 0 min 0 W/m 0,0 km/h (0 Bft) 97,87 %
13.04.2020 23:58 4,3 C 2,8 C 2,8 C 68 % 1025,9 hPa 0,0 l/m 0 min 0 min 0 W/m 0,0 km/h (0 Bft) 97,87 %
_ Min-Zeit 23:56 23:44 23:38 16:40 00:08 - - - - 00:00 05:00
Minimum _ 4,3 C 2,8 C 2,8 C 45 % 1013,2 hPa - - - - 0,0 km/h (0 Bft) 47,73 %
_ Max-Zeit 00:00 13:38 14:20 04:28 23:50 00:00 12:08 09:40 13:42 12:52 00:00
Maximum _ 13,7 C 18,9 C 21,7 C 88 % 1026,0 hPa 0,0 l/m 4 min 2 min 981 W/m 45,1 km/h
W-NW (6 Bft)
100,00 %
Durchschnitt _ 9,9 C 10,2 C 9,5 C 67 % 1020,1 hPa #0,0 l/m #6:22 h #8 min. 341 W/m 12,4 km/h (3 Bft) 96,96 %
© 2020 W. Hausmann